/* DATA DESCRIPTION:
Citation:	Holzbeck, Philip (2026): Master tracks in different resolutions of METEOR cruise M217/3, Walvis Bay - Punta Arenas, 2026-03-13 - 2026-03-30 [dataset]. Max Planck Institute for Chemistry, PANGAEA, https://doi.pangaea.de/10.1594/PANGAEA.996795 (DOI registration in progress)
Abstract:	Raw data acquired by position sensors on board RV METEOR during expedition M217/3 were processed to receive a validated master track which can be used as reference of further expedition data. During M217/3 the motion reference unit Kongsberg SeaTex AS MRU-5 combined with Kongsberg SeaTex AS Seapath 320 and two SAAB R6 DGPS receiver were used as navigation sensors. Data were downloaded from Insightics Marine DSHIP Extraction (https://dship.o2a-data.de) with a resolution of 1 sec. Processing and evaluation of the data is outlined in the data processing report. Processed data are provided as a master track with 1 sec resolution derived from the position sensors' data selected by priority and a generalized track with a reduced set of the most significant positions of the master track.
Other version:	Generalized master track of METEOR cruise M217/3 (URI: https://download.pangaea.de/reference/141191/attachments/M217_3_mastertrack_generalized.zip)
	Holzbeck, Philip (2026): Master track of METEOR cruise M217/3 in 1 sec resolution (zipped, 65 MB) [dataset]. Max Planck Institute for Chemistry, PANGAEA, https://doi.pangaea.de/10.1594/PANGAEA.996796
Data processing report:	Processing report for navigation sensors from METEOR cruise M217/3 (URI: https://download.pangaea.de/reference/141193/attachments/M217_3_nav.pdf)
Further details:	Event list of METEOR cruise M217/3 (URI: https://www.pangaea.de/expeditions/events/M217/3)
	Trackline map of navigation sensors from METEOR cruise M217/3 (URI: https://download.pangaea.de/reference/141194/attachments/M217_3_nav.png)
Project(s):	AI BaseCamp - Helmholtz DataHub Earth & Environment (AI_BaseCamp)
	DAM Marine Data - Research Vessels (DAM_ResearchVessels) (URI: https://www.allianz-meeresforschung.de/en/activities/data-management-and-digitalisation/underway-research-data)
Funding:	Bundesministerium für ­Forschung, Technologie und Raumfahrt (BMFTR) (URI: https://www.bmbf.de/DE/Home/home_node.html), grant/award no. 03F1001E: Auf- und Ausbau Dateninfrastruktur und -management für Daten aus dem Betrieb deutscher Forschungsschiffe; Vorhaben: Bathymetrie-, Sedimentecholot-, Seismik- sowie weitere Unterwegs- und Forschungsmissionsdaten (URI: https://foerderportal.bund.de/foekat/jsp/SucheAction.do?actionMode=view&fkz=03F1001E)
Coverage:	MEDIAN LATITUDE: -41.006188 * MEDIAN LONGITUDE: -26.363986 * SOUTH-BOUND LATITUDE: -53.181746 * WEST-BOUND LONGITUDE: -70.907292 * NORTH-BOUND LATITUDE: -22.843845 * EAST-BOUND LONGITUDE: 14.485271
	DATE/TIME START: 2026-03-13T08:20:00 * DATE/TIME END: 2026-03-30T12:52:20
Event(s):	M217/3-track * LATITUDE START: -22.891497 * LONGITUDE START: 14.484626 * LATITUDE END: -53.169276 * LONGITUDE END: -70.907290 * DATE/TIME START: 2026-03-13T08:00:00 * DATE/TIME END: 2026-03-30T12:52:20 * CAMPAIGN: M217/3 (FluxNG) * BASIS: Meteor (1986) (URI: https://en.wikipedia.org/wiki/RV_Meteor_(1986)) * METHOD/DEVICE: Underway cruise track measurements (CT) * COMMENT: Walvis Bay - Punta Arenas
Comment:	This dataset contains the master track in 10 min resolution, for other resolutions please see "Other version" references.
Parameter(s):	DATE/TIME (Date/Time) * GEOCODE
	LATITUDE (Latitude) * GEOCODE
	LONGITUDE (Longitude) * GEOCODE
	Speed [kn] (Speed) * METHOD/DEVICE: Calculated * COMMENT: 10-min average
	Course [deg] (Course) * METHOD/DEVICE: Calculated * COMMENT: 10-min average
License:	Creative Commons Attribution 4.0 International (CC-BY-4.0) (URI: https://creativecommons.org/licenses/by/4.0/)
Status:	Curation Level: Enhanced curation (URI: https://wiki.pangaea.de/wiki/Curation_levels)
Size:	4954 data points
*/
Date/Time	Latitude	Longitude	Speed [kn]	Course [deg]
2026-03-13T08:20	-22.88882	14.48527	0.956	12.0
2026-03-13T08:30	-22.86440	14.47955	8.962	347.8
2026-03-13T08:40	-22.84385	14.46011	9.801	318.8
2026-03-13T08:50	-22.85306	14.42954	10.683	252.0
2026-03-13T09:00	-22.87408	14.40442	11.250	227.9
2026-03-13T09:10	-22.89557	14.37925	11.370	227.3
2026-03-13T09:20	-22.91714	14.35396	11.418	227.3
2026-03-13T09:30	-22.93877	14.32866	11.438	227.3
2026-03-13T09:40	-22.96028	14.30331	11.418	227.5
2026-03-13T09:50	-22.98204	14.27767	11.548	227.5
2026-03-13T10:00	-23.00267	14.25306	11.021	227.8
2026-03-13T10:10	-23.02423	14.22739	11.503	227.8
2026-03-13T10:20	-23.04619	14.20209	11.513	226.8
2026-03-13T10:30	-23.06959	14.17860	11.452	222.9
2026-03-13T10:40	-23.09406	14.15621	11.498	220.3
2026-03-13T10:50	-23.11854	14.13357	11.553	220.5
2026-03-13T11:00	-23.14291	14.11104	11.499	220.5
2026-03-13T11:10	-23.16742	14.08833	11.573	220.6
2026-03-13T11:20	-23.19219	14.06545	11.680	220.5
2026-03-13T11:30	-23.21724	14.04248	11.775	220.3
2026-03-13T11:40	-23.24190	14.01963	11.641	220.6
2026-03-13T11:50	-23.26600	13.99754	11.326	220.3
2026-03-13T12:00	-23.28989	13.97540	11.278	220.6
2026-03-13T12:10	-23.31353	13.95327	11.207	220.9
2026-03-13T12:20	-23.33697	13.93111	11.161	221.1
2026-03-13T12:30	-23.36009	13.90939	10.973	220.9
2026-03-13T12:40	-23.38319	13.88750	11.008	221.2
2026-03-13T12:50	-23.40735	13.86464	11.501	221.1
2026-03-13T13:00	-23.43173	13.84168	11.585	221.0
2026-03-13T13:10	-23.45602	13.81879	11.541	221.0
2026-03-13T13:20	-23.48035	13.79595	11.543	220.9
2026-03-13T13:30	-23.50466	13.77291	11.577	221.2
2026-03-13T13:40	-23.52932	13.74971	11.707	220.9
2026-03-13T13:50	-23.55328	13.72730	11.348	220.8
2026-03-13T14:00	-23.57678	13.70522	11.148	220.9
2026-03-13T14:10	-23.59955	13.68387	10.793	220.8
2026-03-13T14:20	-23.62266	13.66213	10.966	220.9
2026-03-13T14:30	-23.64628	13.63983	11.226	221.0
2026-03-13T14:40	-23.66999	13.61763	11.230	220.8
2026-03-13T14:50	-23.69308	13.59609	10.917	220.7
2026-03-13T15:00	-23.71645	13.57393	11.125	221.1
2026-03-13T15:10	-23.74012	13.55135	11.297	221.3
2026-03-13T15:20	-23.76358	13.52886	11.222	221.4
2026-03-13T15:30	-23.78677	13.50693	11.025	221.0
2026-03-13T15:40	-23.81032	13.48458	11.213	221.1
2026-03-13T15:50	-23.83419	13.46193	11.363	221.1
2026-03-13T16:00	-23.85774	13.43881	11.377	222.1
2026-03-13T16:10	-23.88078	13.41628	11.115	221.9
2026-03-13T16:20	-23.90442	13.39325	11.379	221.8
2026-03-13T16:30	-23.92903	13.37071	11.539	220.1
2026-03-13T16:40	-23.95396	13.34810	11.640	219.8
2026-03-13T16:50	-23.97848	13.32564	11.495	220.1
2026-03-13T17:00	-24.00249	13.30263	11.473	221.4
2026-03-13T17:10	-24.02609	13.27951	11.386	222.0
2026-03-13T17:20	-24.04911	13.25696	11.105	222.0
2026-03-13T17:30	-24.07225	13.23424	11.173	222.0
2026-03-13T17:40	-24.09614	13.21084	11.524	222.0
2026-03-13T17:50	-24.11984	13.18794	11.362	221.6
2026-03-13T18:00	-24.14354	13.16617	11.116	220.1
2026-03-13T18:10	-24.16691	13.14478	10.945	220.0
2026-03-13T18:20	-24.19024	13.12319	10.976	220.3
2026-03-13T18:30	-24.21304	13.10146	10.862	221.1
2026-03-13T18:40	-24.23675	13.07882	11.301	221.2
2026-03-13T18:50	-24.26093	13.05578	11.515	221.1
2026-03-13T19:00	-24.28508	13.03272	11.512	221.2
2026-03-13T19:10	-24.30917	13.00974	11.475	221.2
2026-03-13T19:20	-24.33303	12.98694	11.376	221.2
2026-03-13T19:30	-24.35721	12.96382	11.528	221.2
2026-03-13T19:40	-24.38128	12.94079	11.479	221.2
2026-03-13T19:50	-24.40535	12.91777	11.476	221.2
2026-03-13T20:00	-24.42937	12.89479	11.454	221.2
2026-03-13T20:10	-24.45370	12.87145	11.612	221.3
2026-03-13T20:20	-24.47796	12.84820	11.575	221.2
2026-03-13T20:30	-24.50182	12.82536	11.376	221.2
2026-03-13T20:40	-24.52561	12.80250	11.363	221.3
2026-03-13T20:50	-24.54928	12.77979	11.296	221.3
2026-03-13T21:00	-24.57296	12.75704	11.304	221.3
2026-03-13T21:10	-24.59657	12.73435	11.275	221.3
2026-03-13T21:20	-24.62064	12.71126	11.483	221.2
2026-03-13T21:30	-24.64450	12.68830	11.396	221.3
2026-03-13T21:40	-24.66880	12.66491	11.607	221.3
2026-03-13T21:50	-24.69298	12.64161	11.556	221.3
2026-03-13T22:00	-24.71691	12.61854	11.438	221.4
2026-03-13T22:10	-24.74062	12.59571	11.326	221.3
2026-03-13T22:20	-24.76453	12.57265	11.426	221.4
2026-03-13T22:30	-24.78874	12.54922	11.588	221.4
2026-03-13T22:40	-24.81317	12.52569	11.667	221.3
2026-03-13T22:50	-24.83767	12.50199	11.720	221.4
2026-03-13T23:00	-24.86215	12.47837	11.700	221.3
2026-03-13T23:10	-24.88620	12.45513	11.497	221.4
2026-03-13T23:20	-24.91000	12.43208	11.394	221.4
2026-03-13T23:30	-24.93379	12.40900	11.390	221.5
2026-03-13T23:40	-24.95767	12.38595	11.412	221.3
2026-03-13T23:50	-24.98165	12.36270	11.477	221.5
2026-03-14T00:00	-25.00546	12.33962	11.397	221.4
2026-03-14T00:10	-25.02903	12.31671	11.293	221.5
2026-03-14T00:20	-25.05219	12.29423	11.087	221.5
2026-03-14T00:30	-25.07557	12.27149	11.206	221.5
2026-03-14T00:40	-25.09943	12.24832	11.422	221.5
2026-03-14T00:50	-25.12265	12.22572	11.130	221.5
2026-03-14T01:00	-25.14586	12.20314	11.118	221.5
2026-03-14T01:10	-25.16904	12.18057	11.111	221.6
2026-03-14T01:20	-25.19225	12.15803	11.112	221.5
2026-03-14T01:30	-25.21132	12.16491	7.198	161.8
2026-03-14T01:40	-25.23226	12.14432	10.076	221.8
2026-03-14T01:50	-25.25487	12.12051	11.230	223.8
2026-03-14T02:00	-25.27739	12.09672	11.199	223.8
2026-03-14T02:10	-25.30002	12.07270	11.282	224.0
2026-03-14T02:20	-25.32290	12.04857	11.369	223.8
2026-03-14T02:30	-25.34558	12.02445	11.314	224.0
2026-03-14T02:40	-25.36799	12.00067	11.165	223.9
2026-03-14T02:50	-25.39031	11.97702	11.113	223.9
2026-03-14T03:00	-25.41260	11.95332	11.116	224.0
2026-03-14T03:10	-25.43513	11.92932	11.244	224.0
2026-03-14T03:20	-25.45802	11.90490	11.431	224.1
2026-03-14T03:30	-25.48118	11.88015	11.575	224.1
2026-03-14T03:40	-25.50433	11.85565	11.512	223.8
2026-03-14T03:50	-25.52734	11.83130	11.444	223.8
2026-03-14T04:00	-25.55084	11.80734	11.482	222.8
2026-03-14T04:10	-25.57462	11.78391	11.440	221.8
2026-03-14T04:20	-25.59791	11.76101	11.193	221.7
2026-03-14T04:30	-25.62120	11.73810	11.196	221.7
2026-03-14T04:40	-25.64447	11.71523	11.178	221.7
2026-03-14T04:50	-25.66754	11.69251	11.091	221.8
2026-03-14T05:00	-25.69064	11.66977	11.105	221.7
2026-03-14T05:10	-25.71390	11.64682	11.192	221.8
2026-03-14T05:20	-25.73732	11.62371	11.269	221.8
2026-03-14T05:30	-25.76059	11.60076	11.193	221.8
2026-03-14T05:40	-25.78358	11.57804	11.064	221.8
2026-03-14T05:50	-25.80667	11.55525	11.107	221.8
2026-03-14T06:00	-25.82951	11.53266	10.999	221.8
2026-03-14T06:10	-25.85218	11.51024	10.912	221.8
2026-03-14T06:20	-25.87489	11.48782	10.926	221.8
2026-03-14T06:30	-25.89782	11.46508	11.048	221.9
2026-03-14T06:40	-25.92060	11.44259	10.954	221.8
2026-03-14T06:50	-25.94082	11.41722	10.970	228.6
2026-03-14T07:00	-25.96192	11.39040	11.530	228.9
2026-03-14T07:10	-25.98293	11.36375	11.468	228.9
2026-03-14T07:20	-26.00373	11.33724	11.380	229.0
2026-03-14T07:30	-26.02429	11.31123	11.203	228.8
2026-03-14T07:40	-26.04498	11.28454	11.396	229.4
2026-03-14T07:50	-26.06574	11.25802	11.371	229.1
2026-03-14T08:00	-26.08677	11.23122	11.504	229.0
2026-03-14T08:10	-26.10796	11.20424	11.583	229.0
2026-03-14T08:20	-26.12941	11.17706	11.691	228.8
2026-03-14T08:30	-26.15046	11.15032	11.490	228.9
2026-03-14T08:40	-26.17133	11.12383	11.382	228.9
2026-03-14T08:50	-26.19225	11.09707	11.462	229.1
2026-03-14T09:00	-26.21348	11.07085	11.403	228.1
2026-03-14T09:10	-26.23535	11.04476	11.524	227.1
2026-03-14T09:20	-26.25688	11.01847	11.489	227.8
2026-03-14T09:30	-26.27838	10.99231	11.447	227.6
2026-03-14T09:40	-26.29918	10.96652	11.191	228.2
2026-03-14T09:50	-26.32014	10.94074	11.229	227.9
2026-03-14T10:00	-26.34112	10.91483	11.259	228.1
2026-03-14T10:10	-26.36170	10.88936	11.058	228.1
2026-03-14T10:20	-26.38250	10.86360	11.181	228.1
2026-03-14T10:30	-26.40295	10.83828	10.986	228.1
2026-03-14T10:40	-26.42366	10.81273	11.106	228.0
2026-03-14T10:50	-26.44467	10.78679	11.271	228.0
2026-03-14T11:00	-26.46591	10.76061	11.380	228.0
2026-03-14T11:10	-26.48738	10.73422	11.484	227.9
2026-03-14T11:20	-26.50897	10.70753	11.587	228.0
2026-03-14T11:30	-26.53070	10.68071	11.650	228.0
2026-03-14T11:40	-26.55262	10.65369	11.741	227.9
2026-03-14T11:50	-26.57426	10.62678	11.647	228.2
2026-03-14T12:00	-26.59581	10.60018	11.550	228.0
2026-03-14T12:10	-26.61661	10.57444	11.159	228.0
2026-03-14T12:20	-26.63737	10.54880	11.132	228.0
2026-03-14T12:30	-26.65823	10.52305	11.174	228.0
2026-03-14T12:40	-26.67908	10.49745	11.137	227.8
2026-03-14T12:50	-26.69945	10.47214	10.951	228.1
2026-03-14T13:00	-26.71994	10.44690	10.962	227.9
2026-03-14T13:10	-26.74075	10.42120	11.150	227.9
2026-03-14T13:20	-26.76174	10.39529	11.241	227.9
2026-03-14T13:30	-26.78251	10.36966	11.118	227.9
2026-03-14T13:40	-26.80303	10.34426	11.006	228.0
2026-03-14T13:50	-26.82332	10.31928	10.846	227.8
2026-03-14T14:00	-26.84353	10.29417	10.860	228.1
2026-03-14T14:10	-26.86408	10.26962	10.805	227.0
2026-03-14T14:20	-26.88475	10.24489	10.876	227.0
2026-03-14T14:30	-26.90530	10.22035	10.801	226.9
2026-03-14T14:40	-26.92598	10.19558	10.887	227.0
2026-03-14T14:50	-26.94668	10.17075	10.904	227.1
2026-03-14T15:00	-26.96711	10.14655	10.689	226.7
2026-03-14T15:10	-26.98709	10.12134	10.819	228.5
2026-03-14T15:20	-27.00709	10.09559	10.954	229.1
2026-03-14T15:30	-27.02708	10.06980	10.960	229.1
2026-03-14T15:40	-27.04734	10.04381	11.070	228.9
2026-03-14T15:50	-27.06748	10.01792	11.015	229.0
2026-03-14T16:00	-27.08839	9.99187	11.239	228.1
2026-03-14T16:10	-27.10877	9.96644	10.963	228.2
2026-03-14T16:20	-27.12963	9.94082	11.120	227.7
2026-03-14T16:30	-27.15046	9.91478	11.210	228.2
2026-03-14T16:40	-27.17147	9.88870	11.265	228.0
2026-03-14T16:50	-27.19237	9.86265	11.231	228.1
2026-03-14T17:00	-27.21331	9.83667	11.219	227.9
2026-03-14T17:10	-27.23432	9.81067	11.242	227.9
2026-03-14T17:20	-27.25525	9.78454	11.252	228.1
2026-03-14T17:30	-27.27620	9.75842	11.253	228.1
2026-03-14T17:40	-27.29712	9.73255	11.184	227.8
2026-03-14T17:50	-27.31781	9.70687	11.085	227.9
2026-03-14T18:00	-27.33828	9.68135	10.993	228.1
2026-03-14T18:10	-27.35860	9.65605	10.902	228.0
2026-03-14T18:20	-27.37927	9.62993	11.182	228.4
2026-03-14T18:30	-27.39969	9.60360	11.167	229.0
2026-03-14T18:40	-27.42020	9.57729	11.189	228.8
2026-03-14T18:50	-27.44063	9.55090	11.186	229.1
2026-03-14T19:00	-27.46099	9.52458	11.151	229.1
2026-03-14T19:10	-27.48160	9.49794	11.284	229.1
2026-03-14T19:20	-27.50239	9.47117	11.359	228.9
2026-03-14T19:30	-27.52319	9.44513	11.185	228.1
2026-03-14T19:40	-27.54368	9.41939	11.037	228.2
2026-03-14T19:50	-27.56457	9.39342	11.189	227.9
2026-03-14T20:00	-27.58568	9.36714	11.313	228.0
2026-03-14T20:10	-27.60676	9.34092	11.289	227.9
2026-03-14T20:20	-27.62792	9.31446	11.365	228.1
2026-03-14T20:30	-27.64905	9.28829	11.289	227.8
2026-03-14T20:40	-27.67002	9.26203	11.272	228.1
2026-03-14T20:50	-27.69098	9.23595	11.222	227.9
2026-03-14T21:00	-27.71221	9.20953	11.366	227.9
2026-03-14T21:10	-27.73318	9.18257	11.433	228.8
2026-03-14T21:20	-27.75392	9.15571	11.354	229.0
2026-03-14T21:30	-27.77480	9.12877	11.405	228.9
2026-03-14T21:40	-27.79573	9.10173	11.438	229.0
2026-03-14T21:50	-27.81642	9.07486	11.343	229.1
2026-03-14T22:00	-27.83747	9.04775	11.481	228.9
2026-03-14T22:10	-27.85849	9.02041	11.531	229.1
2026-03-14T22:20	-27.87940	8.99315	11.482	229.2
2026-03-14T22:30	-27.90062	8.96594	11.545	228.7
2026-03-14T22:40	-27.92178	8.93831	11.626	229.2
2026-03-14T22:50	-27.94284	8.91117	11.486	228.8
2026-03-14T23:00	-27.96403	8.88372	11.590	229.0
2026-03-14T23:10	-27.98522	8.85622	11.599	229.0
2026-03-14T23:20	-28.00613	8.82912	11.435	229.0
2026-03-14T23:30	-28.02691	8.80220	11.364	229.0
2026-03-14T23:40	-28.04762	8.77524	11.353	229.1
2026-03-14T23:50	-28.06854	8.74826	11.407	228.8
2026-03-15T00:00	-28.08949	8.72107	11.465	229.0
2026-03-15T00:10	-28.11006	8.69427	11.277	229.1
2026-03-15T00:20	-28.13072	8.66759	11.268	228.8
2026-03-15T00:30	-28.15142	8.64062	11.349	229.1
2026-03-15T00:40	-28.15693	8.65449	4.834	114.1
2026-03-15T00:50	-28.17689	8.62856	10.923	229.0
2026-03-15T01:00	-28.19699	8.60146	11.236	230.1
2026-03-15T01:10	-28.21726	8.57429	11.290	229.9
2026-03-15T01:20	-28.23774	8.54649	11.493	230.2
2026-03-15T01:30	-28.25815	8.51902	11.394	230.0
2026-03-15T01:40	-28.27840	8.49164	11.335	230.1
2026-03-15T01:50	-28.29893	8.46401	11.459	230.0
2026-03-15T02:00	-28.31974	8.43601	11.612	230.0
2026-03-15T02:10	-28.34065	8.40788	11.668	230.0
2026-03-15T02:20	-28.36157	8.37971	11.673	230.0
2026-03-15T02:30	-28.38235	8.35153	11.645	230.2
2026-03-15T02:40	-28.40342	8.32337	11.706	229.8
2026-03-15T02:50	-28.42418	8.29521	11.634	230.2
2026-03-15T03:00	-28.44489	8.26743	11.527	229.8
2026-03-15T03:10	-28.46571	8.23926	11.647	230.1
2026-03-15T03:20	-28.48661	8.21142	11.582	229.7
2026-03-15T03:30	-28.50781	8.18359	11.652	229.2
2026-03-15T03:40	-28.52854	8.15683	11.281	228.7
2026-03-15T03:50	-28.54916	8.12992	11.292	229.1
2026-03-15T04:00	-28.56986	8.10296	11.320	229.0
2026-03-15T04:10	-28.59054	8.07583	11.355	229.2
2026-03-15T04:20	-28.61118	8.04916	11.234	228.7
2026-03-15T04:30	-28.63187	8.02215	11.326	229.0
2026-03-15T04:40	-28.65259	7.99504	11.355	229.1
2026-03-15T04:50	-28.67372	7.96758	11.534	228.9
2026-03-15T05:00	-28.69461	7.94045	11.399	228.9
2026-03-15T05:10	-28.71525	7.91338	11.324	229.1
2026-03-15T05:20	-28.73592	7.88654	11.273	228.8
2026-03-15T05:30	-28.75628	7.85981	11.173	229.2
2026-03-15T05:40	-28.77670	7.83304	11.195	229.1
2026-03-15T05:50	-28.79725	7.80553	11.407	229.7
2026-03-15T06:00	-28.81788	7.77760	11.518	230.0
2026-03-15T06:10	-28.83849	7.74987	11.471	229.8
2026-03-15T06:20	-28.85910	7.72194	11.514	230.0
2026-03-15T06:30	-28.87952	7.69430	11.398	230.0
2026-03-15T06:40	-28.90000	7.66697	11.337	229.6
2026-03-15T06:50	-28.92075	7.63977	11.369	229.1
2026-03-15T07:00	-28.94135	7.61287	11.258	229.0
2026-03-15T07:10	-28.96237	7.58537	11.501	229.0
2026-03-15T07:20	-28.98334	7.55794	11.469	229.0
2026-03-15T07:30	-29.00442	7.53033	11.541	229.0
2026-03-15T07:40	-29.02529	7.50308	11.402	228.9
2026-03-15T07:50	-29.04637	7.47550	11.527	229.0
2026-03-15T08:00	-29.06735	7.44808	11.466	228.9
2026-03-15T08:10	-29.08844	7.42046	11.536	229.0
2026-03-15T08:20	-29.10966	7.39262	11.620	229.0
2026-03-15T08:30	-29.13107	7.36457	11.713	229.0
2026-03-15T08:40	-29.15224	7.33656	11.645	229.3
2026-03-15T08:50	-29.17308	7.30809	11.676	230.2
2026-03-15T09:00	-29.19388	7.27988	11.607	229.9
2026-03-15T09:10	-29.21456	7.25176	11.554	230.0
2026-03-15T09:20	-29.23542	7.22335	11.662	230.1
2026-03-15T09:30	-29.25639	7.19488	11.702	230.0
2026-03-15T09:40	-29.27751	7.16660	11.690	229.6
2026-03-15T09:50	-29.29875	7.13863	11.642	229.1
2026-03-15T10:00	-29.31960	7.11130	11.398	229.0
2026-03-15T10:10	-29.34012	7.08442	11.214	228.9
2026-03-15T10:20	-29.36014	7.05800	10.984	229.1
2026-03-15T10:30	-29.38073	7.03095	11.265	229.0
2026-03-15T10:40	-29.40117	7.00410	11.184	229.0
2026-03-15T10:50	-29.42152	6.97741	11.121	228.9
2026-03-15T11:00	-29.44176	6.95061	11.120	229.2
2026-03-15T11:10	-29.46193	6.92292	11.317	230.2
2026-03-15T11:20	-29.48203	6.89558	11.214	229.9
2026-03-15T11:30	-29.50207	6.86821	11.206	230.1
2026-03-15T11:40	-29.52230	6.84069	11.286	229.9
2026-03-15T11:50	-29.54254	6.81299	11.331	230.1
2026-03-15T12:00	-29.56292	6.78522	11.375	230.0
2026-03-15T12:10	-29.58339	6.75743	11.401	229.9
2026-03-15T12:20	-29.60396	6.72926	11.517	230.1
2026-03-15T12:30	-29.62462	6.70121	11.505	229.9
2026-03-15T12:40	-29.64497	6.67331	11.396	230.2
2026-03-15T12:50	-29.66552	6.64524	11.484	230.0
2026-03-15T13:00	-29.68596	6.61738	11.405	230.0
2026-03-15T13:10	-29.70609	6.59004	11.207	229.9
2026-03-15T13:20	-29.72626	6.56257	11.244	229.9
2026-03-15T13:30	-29.74679	6.53455	11.463	230.0
2026-03-15T13:40	-29.76716	6.50665	11.392	230.1
2026-03-15T13:50	-29.78755	6.47876	11.393	230.1
2026-03-15T14:00	-29.80787	6.45073	11.411	230.2
2026-03-15T14:10	-29.82840	6.42282	11.429	229.9
2026-03-15T14:20	-29.84936	6.39426	11.684	229.9
2026-03-15T14:30	-29.87023	6.36568	11.662	230.1
2026-03-15T14:40	-29.89084	6.33760	11.485	229.9
2026-03-15T14:50	-29.91130	6.30950	11.452	230.1
2026-03-15T15:00	-29.93287	6.28003	12.034	229.9
2026-03-15T15:10	-29.95470	6.25007	12.210	230.1
2026-03-15T15:20	-29.97617	6.22064	12.000	230.0
2026-03-15T15:30	-29.99769	6.19179	11.870	229.4
2026-03-15T15:40	-30.01939	6.16308	11.878	229.0
2026-03-15T15:50	-30.04097	6.13461	11.793	228.9
2026-03-15T16:00	-30.06242	6.10527	11.968	229.9
2026-03-15T16:10	-30.08339	6.07637	11.751	230.2
2026-03-15T16:20	-30.10424	6.04769	11.668	230.1
2026-03-15T16:30	-30.12519	6.01910	11.667	229.9
2026-03-15T16:40	-30.14620	5.99035	11.721	229.9
2026-03-15T16:50	-30.16687	5.96216	11.504	229.8
2026-03-15T17:00	-30.18733	5.93393	11.464	230.2
2026-03-15T17:10	-30.20836	5.90507	11.746	230.0
2026-03-15T17:20	-30.22969	5.87578	11.916	230.0
2026-03-15T17:30	-30.25067	5.84704	11.700	229.9
2026-03-15T17:40	-30.27147	5.81850	11.613	230.0
2026-03-15T17:50	-30.29197	5.79032	11.456	230.0
2026-03-15T18:00	-30.31203	5.76272	11.215	230.0
2026-03-15T18:10	-30.33236	5.73476	11.358	230.0
2026-03-15T18:20	-30.35258	5.70706	11.273	229.9
2026-03-15T18:30	-30.37256	5.67878	11.356	230.8
2026-03-15T18:40	-30.39234	5.65077	11.242	230.8
2026-03-15T18:50	-30.41232	5.62287	11.259	230.4
2026-03-15T19:00	-30.43215	5.59538	11.127	230.2
2026-03-15T19:10	-30.45221	5.56794	11.167	229.8
2026-03-15T19:20	-30.47231	5.54042	11.194	229.8
2026-03-15T19:30	-30.49231	5.51285	11.182	230.0
2026-03-15T19:40	-30.51231	5.48536	11.159	230.0
2026-03-15T19:50	-30.53202	5.45817	11.022	230.1
2026-03-15T20:00	-30.55186	5.43086	11.077	230.0
2026-03-15T20:10	-30.57156	5.40374	11.001	230.0
2026-03-15T20:20	-30.59147	5.37641	11.095	229.9
2026-03-15T20:30	-30.61144	5.34891	11.152	230.0
2026-03-15T20:40	-30.63107	5.32178	10.981	230.1
2026-03-15T20:50	-30.65019	5.29488	10.808	230.6
2026-03-15T21:00	-30.67015	5.26620	11.425	231.2
2026-03-15T21:10	-30.69042	5.23714	11.586	231.1
2026-03-15T21:20	-30.71088	5.20802	11.645	230.9
2026-03-15T21:30	-30.73093	5.17918	11.480	231.2
2026-03-15T21:40	-30.75101	5.15048	11.453	231.0
2026-03-15T21:50	-30.77099	5.12191	11.396	231.0
2026-03-15T22:00	-30.79084	5.09339	11.355	231.1
2026-03-15T22:10	-30.81071	5.06498	11.330	231.0
2026-03-15T22:20	-30.83063	5.03650	11.359	231.0
2026-03-15T22:30	-30.85065	5.00782	11.427	231.0
2026-03-15T22:40	-30.87052	4.97934	11.341	231.0
2026-03-15T22:50	-30.89042	4.95084	11.354	231.0
2026-03-15T23:00	-30.91029	4.92240	11.334	231.0
2026-03-15T23:10	-30.92997	4.89428	11.210	230.9
2026-03-15T23:20	-30.94931	4.86651	11.046	231.1
2026-03-15T23:30	-30.96865	4.83881	11.030	231.0
2026-03-15T23:40	-30.98853	4.81020	11.369	231.1
2026-03-15T23:50	-31.00905	4.78076	11.711	231.0
2026-03-16T00:00	-31.02966	4.75116	11.768	231.0
2026-03-16T00:10	-31.05009	4.72180	11.668	231.1
2026-03-16T00:20	-31.07017	4.69316	11.414	230.8
2026-03-16T00:30	-31.09015	4.66449	11.399	231.0
2026-03-16T00:40	-31.10982	4.63604	11.273	231.2
2026-03-16T00:50	-31.12993	4.60732	11.438	230.9
2026-03-16T01:00	-31.14988	4.57872	11.370	230.9
2026-03-16T01:10	-31.15590	4.55549	7.491	253.2
2026-03-16T01:20	-31.15522	4.53492	6.355	272.2
2026-03-16T01:30	-31.17570	4.50764	11.178	228.9
2026-03-16T01:40	-31.19606	4.48034	11.156	229.1
2026-03-16T01:50	-31.21677	4.45265	11.325	229.0
2026-03-16T02:00	-31.23715	4.42519	11.196	229.2
2026-03-16T02:10	-31.25779	4.39770	11.261	228.8
2026-03-16T02:20	-31.27818	4.37034	11.169	229.1
2026-03-16T02:30	-31.29863	4.34298	11.183	228.9
2026-03-16T02:40	-31.31893	4.31541	11.195	229.4
2026-03-16T02:50	-31.33902	4.28752	11.221	230.0
2026-03-16T03:00	-31.35922	4.25953	11.267	229.9
2026-03-16T03:10	-31.38014	4.23139	11.471	229.1
2026-03-16T03:20	-31.40117	4.20316	11.515	229.0
2026-03-16T03:30	-31.42205	4.17529	11.393	228.8
2026-03-16T03:40	-31.44296	4.14731	11.426	228.9
2026-03-16T03:50	-31.46379	4.11935	11.402	229.0
2026-03-16T04:00	-31.48467	4.09151	11.381	228.8
2026-03-16T04:10	-31.50531	4.06367	11.326	229.1
2026-03-16T04:20	-31.52617	4.03569	11.410	229.0
2026-03-16T04:30	-31.54718	4.00759	11.466	228.9
2026-03-16T04:40	-31.56780	3.97981	11.305	229.1
2026-03-16T04:50	-31.58862	3.95185	11.389	229.0
2026-03-16T05:00	-31.60901	3.92389	11.285	229.6
2026-03-16T05:10	-31.62889	3.89499	11.394	231.2
2026-03-16T05:20	-31.64895	3.86591	11.473	231.1
2026-03-16T05:30	-31.66893	3.83680	11.463	231.3
2026-03-16T05:40	-31.68857	3.80823	11.253	231.2
2026-03-16T05:50	-31.70821	3.77964	11.261	231.2
2026-03-16T06:00	-31.72793	3.75093	11.302	231.2
2026-03-16T06:10	-31.74772	3.72206	11.354	231.3
2026-03-16T06:20	-31.76770	3.69295	11.454	231.2
2026-03-16T06:30	-31.78762	3.66387	11.434	231.3
2026-03-16T06:40	-31.80794	3.63419	11.665	231.3
2026-03-16T06:50	-31.82771	3.60519	11.373	231.4
2026-03-16T07:00	-31.84742	3.57644	11.305	231.2
2026-03-16T07:10	-31.86704	3.54773	11.267	231.3
2026-03-16T07:20	-31.88676	3.51875	11.357	231.4
2026-03-16T07:30	-31.90646	3.48989	11.323	231.3
2026-03-16T07:40	-31.92627	3.46082	11.395	231.4
2026-03-16T07:50	-31.94618	3.43157	11.461	231.4
2026-03-16T08:00	-31.96591	3.40251	11.370	231.5
2026-03-16T08:10	-31.98543	3.37377	11.248	231.4
2026-03-16T08:20	-32.00519	3.34464	11.389	231.5
2026-03-16T08:30	-32.02508	3.31537	11.453	231.4
2026-03-16T08:40	-32.04478	3.28633	11.358	231.4
2026-03-16T08:50	-32.06472	3.25697	11.481	231.4
2026-03-16T09:00	-32.08432	3.22799	11.316	231.5
2026-03-16T09:10	-32.10361	3.19946	11.137	231.5
2026-03-16T09:20	-32.12330	3.17034	11.364	231.5
2026-03-16T09:30	-32.14313	3.14093	11.466	231.6
2026-03-16T09:40	-32.16264	3.11207	11.258	231.5
2026-03-16T09:50	-32.18222	3.08298	11.332	231.6
2026-03-16T10:00	-32.20184	3.05389	11.336	231.6
2026-03-16T10:10	-32.22120	3.02519	11.182	231.6
2026-03-16T10:20	-32.24009	2.99710	10.932	231.6
2026-03-16T10:30	-32.25908	2.96884	10.996	231.7
2026-03-16T10:40	-32.27810	2.94054	11.005	231.7
2026-03-16T10:50	-32.29751	2.91157	11.254	231.7
2026-03-16T11:00	-32.31693	2.88270	11.232	231.6
2026-03-16T11:10	-32.33623	2.85427	11.097	231.3
2026-03-16T11:20	-32.35548	2.82530	11.214	232.0
2026-03-16T11:30	-32.37492	2.79586	11.368	232.1
2026-03-16T11:40	-32.39482	2.76583	11.607	232.0
2026-03-16T11:50	-32.41479	2.73570	11.650	232.0
2026-03-16T12:00	-32.43485	2.70538	11.712	232.0
2026-03-16T12:10	-32.45448	2.67591	11.410	231.8
2026-03-16T12:20	-32.47410	2.64710	11.248	231.2
2026-03-16T12:30	-32.49371	2.61795	11.327	231.6
2026-03-16T12:40	-32.51285	2.58912	11.145	231.9
2026-03-16T12:50	-32.53228	2.55983	11.317	231.9
2026-03-16T13:00	-32.55170	2.53047	11.330	232.0
2026-03-16T13:10	-32.57125	2.50097	11.392	231.9
2026-03-16T13:20	-32.59097	2.47095	11.551	232.2
2026-03-16T13:30	-32.61078	2.44117	11.514	231.8
2026-03-16T13:40	-32.63047	2.41126	11.514	232.1
2026-03-16T13:50	-32.65005	2.38137	11.485	232.2
2026-03-16T14:00	-32.66998	2.35147	11.563	231.8
2026-03-16T14:10	-32.68956	2.32192	11.400	231.9
2026-03-16T14:20	-32.70929	2.29199	11.523	232.1
2026-03-16T14:30	-32.72921	2.26172	11.645	232.1
2026-03-16T14:40	-32.74881	2.23183	11.483	232.2
2026-03-16T14:50	-32.76824	2.20248	11.312	231.9
2026-03-16T15:00	-32.78793	2.17253	11.515	232.1
2026-03-16T15:10	-32.80746	2.14293	11.390	232.0
2026-03-16T15:20	-32.82710	2.11329	11.424	231.9
2026-03-16T15:30	-32.84685	2.08338	11.512	231.9
2026-03-16T15:40	-32.86670	2.05317	11.604	232.1
2026-03-16T15:50	-32.88669	2.02292	11.643	231.9
2026-03-16T16:00	-32.90699	1.99228	11.801	231.8
2026-03-16T16:10	-32.92707	1.96169	11.741	232.1
2026-03-16T16:20	-32.94668	1.93101	11.657	232.8
2026-03-16T16:30	-32.96648	1.89983	11.817	233.0
2026-03-16T16:40	-32.98615	1.86860	11.801	233.2
2026-03-16T16:50	-33.00606	1.83755	11.810	232.7
2026-03-16T17:00	-33.02666	1.80627	12.010	232.0
2026-03-16T17:10	-33.04732	1.77500	12.019	231.9
2026-03-16T17:20	-33.06762	1.74394	11.892	232.2
2026-03-16T17:30	-33.08785	1.71322	11.790	232.0
2026-03-16T17:40	-33.10784	1.68299	11.621	231.8
2026-03-16T17:50	-33.12778	1.65271	11.618	231.9
2026-03-16T18:00	-33.14758	1.62240	11.597	232.2
2026-03-16T18:10	-33.16735	1.59259	11.466	231.7
2026-03-16T18:20	-33.18691	1.56271	11.436	232.1
2026-03-16T18:30	-33.20665	1.53277	11.487	231.9
2026-03-16T18:40	-33.22615	1.50315	11.358	231.9
2026-03-16T18:50	-33.24469	1.47280	11.324	234.0
2026-03-16T19:00	-33.26384	1.44303	11.312	232.6
2026-03-16T19:10	-33.28261	1.41395	11.063	232.4
2026-03-16T19:20	-33.30114	1.38517	10.937	232.5
2026-03-16T19:30	-33.31982	1.35621	11.013	232.5
2026-03-16T19:40	-33.33823	1.32749	10.893	232.6
2026-03-16T19:50	-33.35660	1.29889	10.855	232.6
2026-03-16T20:00	-33.37486	1.27044	10.794	232.6
2026-03-16T20:10	-33.39276	1.24254	10.582	232.6
2026-03-16T20:20	-33.41051	1.21492	10.480	232.6
2026-03-16T20:30	-33.42805	1.18757	10.371	232.6
2026-03-16T20:40	-33.44574	1.15990	10.476	232.7
2026-03-16T20:50	-33.46316	1.13268	10.311	232.6
2026-03-16T21:00	-33.48090	1.10492	10.506	232.7
2026-03-16T21:10	-33.49814	1.07792	10.215	232.7
2026-03-16T21:20	-33.51546	1.05085	10.248	232.6
2026-03-16T21:30	-33.53273	1.02379	10.234	232.7
2026-03-16T21:40	-33.55011	0.99647	10.320	232.8
2026-03-16T21:50	-33.56714	0.96981	10.082	232.7
2026-03-16T22:00	-33.58404	0.94320	10.041	232.8
2026-03-16T22:10	-33.60071	0.91690	9.916	232.8
2026-03-16T22:20	-33.61776	0.89011	10.117	232.7
2026-03-16T22:30	-33.63505	0.86281	10.286	232.9
2026-03-16T22:40	-33.65276	0.83506	10.486	232.7
2026-03-16T22:50	-33.67068	0.80669	10.678	232.9
2026-03-16T23:00	-33.68909	0.77775	10.917	232.7
2026-03-16T23:10	-33.70750	0.74860	10.970	232.9
2026-03-16T23:20	-33.72606	0.71929	11.036	232.8
2026-03-16T23:30	-33.74411	0.69067	10.759	232.9
2026-03-16T23:40	-33.76252	0.66159	10.947	232.8
2026-03-16T23:50	-33.78030	0.63339	10.597	232.9
2026-03-17T00:00	-33.79838	0.60472	10.774	232.9
2026-03-17T00:10	-33.81633	0.57629	10.689	232.9
2026-03-17T00:20	-33.83404	0.54810	10.575	233.0
2026-03-17T00:30	-33.85137	0.52066	10.313	232.9
2026-03-17T00:40	-33.86896	0.49259	10.520	233.1
2026-03-17T00:50	-33.88631	0.46504	10.341	232.9
2026-03-17T01:00	-33.90382	0.43713	10.462	233.0
2026-03-17T01:10	-33.92143	0.40897	10.540	233.1
2026-03-17T01:20	-33.93918	0.38068	10.600	233.0
2026-03-17T01:30	-33.95767	0.35118	11.049	233.1
2026-03-17T01:40	-33.97636	0.32120	11.205	233.2
2026-03-17T01:50	-33.99456	0.29208	10.893	233.1
2026-03-17T02:00	-34.01248	0.26346	10.709	233.1
2026-03-17T02:10	-34.03043	0.23466	10.759	233.2
2026-03-17T02:20	-34.04819	0.20619	10.638	233.1
2026-03-17T02:30	-34.06631	0.17724	10.829	233.1
2026-03-17T02:40	-34.08411	0.14852	10.703	233.3
2026-03-17T02:50	-34.10194	0.11993	10.676	233.1
2026-03-17T03:00	-34.11964	0.09147	10.615	233.2
2026-03-17T03:10	-34.13727	0.06298	10.608	233.3
2026-03-17T03:20	-34.15470	0.03491	10.462	233.2
2026-03-17T03:30	-34.17249	0.00630	10.666	233.2
2026-03-17T03:40	-34.19031	-0.02242	10.701	233.2
2026-03-17T03:50	-34.20847	-0.05183	10.935	233.4
2026-03-17T04:00	-34.22614	-0.08030	10.604	233.2
2026-03-17T04:10	-34.24412	-0.10941	10.821	233.4
2026-03-17T04:20	-34.26182	-0.13809	10.657	233.4
2026-03-17T04:30	-34.27959	-0.16687	10.697	233.4
2026-03-17T04:40	-34.29714	-0.19526	10.552	233.3
2026-03-17T04:50	-34.31424	-0.22310	10.323	233.5
2026-03-17T05:00	-34.33173	-0.25138	10.513	233.3
2026-03-17T05:10	-34.34946	-0.28029	10.712	233.5
2026-03-17T05:20	-34.36682	-0.30861	10.490	233.5
2026-03-17T05:30	-34.38417	-0.33675	10.442	233.4
2026-03-17T05:40	-34.40172	-0.36534	10.593	233.4
2026-03-17T05:50	-34.41976	-0.39471	10.883	233.4
2026-03-17T06:00	-34.43793	-0.42441	10.988	233.6
2026-03-17T06:10	-34.45530	-0.45270	10.479	233.4
2026-03-17T06:20	-34.47259	-0.48100	10.460	233.6
2026-03-17T06:30	-34.48985	-0.50938	10.474	233.7
2026-03-17T06:40	-34.50667	-0.53677	10.142	233.4
2026-03-17T06:50	-34.52347	-0.56432	10.173	233.6
2026-03-17T07:00	-34.54072	-0.59258	10.440	233.6
2026-03-17T07:10	-34.55805	-0.62108	10.512	233.7
2026-03-17T07:20	-34.57555	-0.64887	10.379	232.7
2026-03-17T07:30	-34.59276	-0.67768	10.556	234.1
2026-03-17T07:40	-34.61000	-0.70733	10.767	234.9
2026-03-17T07:50	-34.62653	-0.73523	10.192	234.4
2026-03-17T08:00	-34.64318	-0.76357	10.324	234.6
2026-03-17T08:10	-34.66025	-0.79240	10.525	234.4
2026-03-17T08:20	-34.67760	-0.82039	10.386	233.1
2026-03-17T08:30	-34.69506	-0.84841	10.417	233.0
2026-03-17T08:40	-34.71259	-0.87670	10.490	233.1
2026-03-17T08:50	-34.73038	-0.90568	10.711	233.4
2026-03-17T09:00	-34.74771	-0.93465	10.606	234.1
2026-03-17T09:10	-34.76514	-0.96362	10.630	233.9
2026-03-17T09:20	-34.78201	-0.99202	10.373	234.2
2026-03-17T09:30	-34.79917	-1.02073	10.506	234.1
2026-03-17T09:40	-34.81601	-1.04867	10.253	233.8
2026-03-17T09:50	-34.83302	-1.07714	10.412	234.1
2026-03-17T10:00	-34.84942	-1.10438	9.991	233.8
2026-03-17T10:10	-34.86580	-1.13165	9.990	233.9
2026-03-17T10:20	-34.88269	-1.15981	10.310	233.9
2026-03-17T10:30	-34.89929	-1.18757	10.153	234.0
2026-03-17T10:40	-34.91620	-1.21574	10.315	233.9
2026-03-17T10:50	-34.93347	-1.24405	10.422	233.5
2026-03-17T11:00	-34.95070	-1.27187	10.299	233.1
2026-03-17T11:10	-34.96802	-1.30040	10.483	233.6
2026-03-17T11:20	-34.98549	-1.32964	10.682	234.0
2026-03-17T11:30	-35.00315	-1.35916	10.789	234.0
2026-03-17T11:40	-35.02085	-1.38890	10.851	234.1
2026-03-17T11:50	-35.03895	-1.41884	10.978	233.7
2026-03-17T12:00	-35.05695	-1.44917	11.049	234.2
2026-03-17T12:10	-35.07512	-1.47960	11.109	234.0
2026-03-17T12:20	-35.09290	-1.50930	10.849	233.9
2026-03-17T12:30	-35.11130	-1.54012	11.246	234.0
2026-03-17T12:40	-35.12933	-1.57043	11.045	234.1
2026-03-17T12:50	-35.14750	-1.60102	11.139	234.1
2026-03-17T13:00	-35.16567	-1.63121	11.045	233.8
2026-03-17T13:10	-35.18382	-1.66229	11.250	234.6
2026-03-17T13:20	-35.20238	-1.69442	11.585	234.9
2026-03-17T13:30	-35.22079	-1.72567	11.341	234.3
2026-03-17T13:40	-35.23954	-1.75692	11.412	233.8
2026-03-17T13:50	-35.25818	-1.78817	11.385	234.0
2026-03-17T14:00	-35.27704	-1.81997	11.563	234.1
2026-03-17T14:10	-35.29601	-1.85189	11.612	234.1
2026-03-17T14:20	-35.31485	-1.88419	11.676	234.6
2026-03-17T14:30	-35.33319	-1.91568	11.373	234.6
2026-03-17T14:40	-35.34997	-1.94549	10.645	235.5
2026-03-17T14:50	-35.36860	-1.97792	11.659	234.9
2026-03-17T15:00	-35.38744	-2.01079	11.804	235.0
2026-03-17T15:10	-35.40618	-2.04334	11.704	234.9
2026-03-17T15:20	-35.42469	-2.07569	11.610	235.0
2026-03-17T15:30	-35.44297	-2.10762	11.454	235.0
2026-03-17T15:40	-35.46134	-2.13929	11.413	234.7
2026-03-17T15:50	-35.47996	-2.17076	11.415	234.1
2026-03-17T16:00	-35.49840	-2.20180	11.273	234.0
2026-03-17T16:10	-35.51707	-2.23336	11.444	234.1
2026-03-17T16:20	-35.53555	-2.26457	11.317	234.1
2026-03-17T16:30	-35.55422	-2.29590	11.382	233.9
2026-03-17T16:40	-35.57281	-2.32730	11.384	234.1
2026-03-17T16:50	-35.59083	-2.35858	11.234	234.8
2026-03-17T17:00	-35.60917	-2.39027	11.396	234.7
2026-03-17T17:10	-35.62782	-2.42248	11.584	234.6
2026-03-17T17:20	-35.64653	-2.45483	11.626	234.7
2026-03-17T17:30	-35.66509	-2.48691	11.531	234.7
2026-03-17T17:40	-35.68360	-2.51892	11.503	234.7
2026-03-17T17:50	-35.70210	-2.55108	11.533	234.8
2026-03-17T18:00	-35.72075	-2.58342	11.604	234.7
2026-03-17T18:10	-35.73912	-2.61528	11.432	234.7
2026-03-17T18:20	-35.75759	-2.64749	11.533	234.8
2026-03-17T18:30	-35.77600	-2.67946	11.461	234.8
2026-03-17T18:40	-35.79422	-2.71123	11.374	234.9
2026-03-17T18:50	-35.81242	-2.74298	11.362	234.8
2026-03-17T19:00	-35.83060	-2.77467	11.342	234.8
2026-03-17T19:10	-35.84860	-2.80609	11.240	234.9
2026-03-17T19:20	-35.86667	-2.83767	11.290	234.9
2026-03-17T19:30	-35.88481	-2.86938	11.332	234.9
2026-03-17T19:40	-35.90263	-2.90062	11.155	234.9
2026-03-17T19:50	-35.92032	-2.93158	11.057	234.9
2026-03-17T20:00	-35.93794	-2.96257	11.047	235.1
2026-03-17T20:10	-35.95565	-2.99357	11.070	234.9
2026-03-17T20:20	-35.97345	-3.02487	11.157	235.0
2026-03-17T20:30	-35.99120	-3.05612	11.133	235.0
2026-03-17T20:40	-36.00892	-3.08734	11.118	235.1
2026-03-17T20:50	-36.02665	-3.11851	11.106	235.0
2026-03-17T21:00	-36.04406	-3.14929	10.946	235.1
2026-03-17T21:10	-36.06140	-3.17992	10.894	235.1
2026-03-17T21:20	-36.07887	-3.21079	10.976	235.1
2026-03-17T21:30	-36.09640	-3.24178	11.016	235.1
2026-03-17T21:40	-36.11359	-3.27223	10.815	235.2
2026-03-17T21:50	-36.13108	-3.30323	11.007	235.2
2026-03-17T22:00	-36.14840	-3.33392	10.896	235.2
2026-03-17T22:10	-36.16547	-3.36419	10.742	235.2
2026-03-17T22:20	-36.18234	-3.39425	10.652	235.3
2026-03-17T22:30	-36.19925	-3.42429	10.650	235.2
2026-03-17T22:40	-36.21632	-3.45472	10.776	235.3
2026-03-17T22:50	-36.23314	-3.48466	10.606	235.2
2026-03-17T23:00	-36.25022	-3.51509	10.774	235.3
2026-03-17T23:10	-36.26715	-3.54532	10.696	235.3
2026-03-17T23:20	-36.28418	-3.57574	10.759	235.3
2026-03-17T23:30	-36.30130	-3.60631	10.813	235.3
2026-03-17T23:40	-36.31872	-3.63751	11.024	235.4
2026-03-17T23:50	-36.33597	-3.66842	10.917	235.4
2026-03-18T00:00	-36.35361	-3.70004	11.163	235.4
2026-03-18T00:10	-36.37165	-3.73236	11.411	235.4
2026-03-18T00:20	-36.38928	-3.76400	11.165	235.4
2026-03-18T00:30	-36.40662	-3.79520	10.997	235.5
2026-03-18T00:40	-36.42387	-3.82629	10.951	235.5
2026-03-18T00:50	-36.44122	-3.85754	11.011	235.5
2026-03-18T01:00	-36.45856	-3.88877	10.999	235.5
2026-03-18T01:10	-36.47613	-3.92045	11.152	235.5
2026-03-18T01:20	-36.49368	-3.95217	11.158	235.6
2026-03-18T01:30	-36.51100	-3.98345	11.003	235.6
2026-03-18T01:40	-36.52853	-4.01519	11.155	235.6
2026-03-18T01:50	-36.54608	-4.04697	11.164	235.6
2026-03-18T02:00	-36.56380	-4.07912	11.288	235.7
2026-03-18T02:10	-36.58169	-4.11158	11.392	235.7
2026-03-18T02:20	-36.59954	-4.14401	11.379	235.7
2026-03-18T02:30	-36.61731	-4.17636	11.340	235.7
2026-03-18T02:40	-36.63498	-4.20846	11.257	235.7
2026-03-18T02:50	-36.65266	-4.24060	11.269	235.7
2026-03-18T03:00	-36.67020	-4.27264	11.214	235.8
2026-03-18T03:10	-36.68762	-4.30445	11.134	235.8
2026-03-18T03:20	-36.70532	-4.33673	11.299	235.7
2026-03-18T03:30	-36.72304	-4.36912	11.328	235.8
2026-03-18T03:40	-36.74080	-4.40168	11.379	235.9
2026-03-18T03:50	-36.75859	-4.43425	11.381	235.8
2026-03-18T04:00	-36.77661	-4.46727	11.537	235.8
2026-03-18T04:10	-36.79490	-4.50089	11.730	235.9
2026-03-18T04:20	-36.81356	-4.53507	11.936	235.8
2026-03-18T04:30	-36.83196	-4.56895	11.812	235.9
2026-03-18T04:40	-36.85031	-4.60271	11.771	235.9
2026-03-18T04:50	-36.86873	-4.63666	11.828	236.0
2026-03-18T05:00	-36.88701	-4.67035	11.735	235.9
2026-03-18T05:10	-36.90509	-4.70384	11.646	236.1
2026-03-18T05:20	-36.92284	-4.73662	11.409	236.0
2026-03-18T05:30	-36.94078	-4.76987	11.557	236.1
2026-03-18T05:40	-36.95879	-4.80321	11.592	236.1
2026-03-18T05:50	-36.97649	-4.83603	11.400	236.1
2026-03-18T06:00	-36.99393	-4.86834	11.227	236.1
2026-03-18T06:10	-37.01174	-4.90144	11.489	236.1
2026-03-18T06:20	-37.02965	-4.93474	11.552	236.1
2026-03-18T06:30	-37.04770	-4.96831	11.645	236.1
2026-03-18T06:40	-37.06598	-5.00231	11.792	236.1
2026-03-18T06:50	-37.08424	-5.03648	11.827	236.3
2026-03-18T07:00	-37.10234	-5.07016	11.673	236.1
2026-03-18T07:10	-37.12006	-5.10339	11.488	236.3
2026-03-18T07:20	-37.13772	-5.13639	11.424	236.2
2026-03-18T07:30	-37.15544	-5.16962	11.483	236.3
2026-03-18T07:40	-37.17281	-5.20215	11.246	236.3
2026-03-18T07:50	-37.19036	-5.23507	11.376	236.3
2026-03-18T08:00	-37.20815	-5.26852	11.548	236.4
2026-03-18T08:10	-37.22598	-5.30196	11.549	236.3
2026-03-18T08:20	-37.24408	-5.33600	11.747	236.4
2026-03-18T08:30	-37.26185	-5.36948	11.543	236.4
2026-03-18T08:40	-37.27996	-5.40363	11.770	236.4
2026-03-18T08:50	-37.29809	-5.43790	11.803	236.5
2026-03-18T09:00	-37.31638	-5.47238	11.879	236.4
2026-03-18T09:10	-37.33462	-5.50687	11.875	236.5
2026-03-18T09:20	-37.35276	-5.54124	11.820	236.5
2026-03-18T09:30	-37.37096	-5.57578	11.871	236.6
2026-03-18T09:40	-37.38902	-5.61001	11.769	236.5
2026-03-18T09:50	-37.40716	-5.64448	11.839	236.6
2026-03-18T10:00	-37.42532	-5.67901	11.856	236.6
2026-03-18T10:10	-37.44340	-5.71346	11.818	236.7
2026-03-18T10:20	-37.46133	-5.74762	11.718	236.6
2026-03-18T10:30	-37.47940	-5.78209	11.817	236.7
2026-03-18T10:40	-37.49745	-5.81656	11.811	236.7
2026-03-18T10:50	-37.51565	-5.85070	11.763	236.2
2026-03-18T11:00	-37.53344	-5.88450	11.594	236.5
2026-03-18T11:10	-37.55151	-5.91874	11.757	236.4
2026-03-18T11:20	-37.56950	-5.95298	11.738	236.6
2026-03-18T11:30	-37.58739	-5.98692	11.641	236.5
2026-03-18T11:40	-37.60515	-6.02089	11.623	236.7
2026-03-18T11:50	-37.62300	-6.05495	11.662	236.6
2026-03-18T12:00	-37.64112	-6.08947	11.820	236.6
2026-03-18T12:10	-37.65936	-6.12417	11.888	236.5
2026-03-18T12:20	-37.67773	-6.15897	11.935	236.4
2026-03-18T12:30	-37.69574	-6.19333	11.755	236.6
2026-03-18T12:40	-37.71366	-6.22757	11.707	236.6
2026-03-18T12:50	-37.73140	-6.26228	11.783	237.2
2026-03-18T13:00	-37.74957	-6.29738	11.958	236.9
2026-03-18T13:10	-37.76787	-6.33298	12.102	237.1
2026-03-18T13:20	-37.78642	-6.36889	12.221	236.9
2026-03-18T13:30	-37.80483	-6.40469	12.167	237.1
2026-03-18T13:40	-37.82341	-6.44059	12.221	236.9
2026-03-18T13:50	-37.84178	-6.47626	12.124	237.0
2026-03-18T14:00	-37.85992	-6.51229	12.161	237.6
2026-03-18T14:10	-37.87778	-6.54853	12.158	238.1
2026-03-18T14:20	-37.89575	-6.58475	12.172	237.9
2026-03-18T14:30	-37.91369	-6.62088	12.142	237.9
2026-03-18T14:40	-37.93135	-6.65674	12.023	238.1
2026-03-18T14:50	-37.94882	-6.69179	11.786	237.8
2026-03-18T15:00	-37.96619	-6.72664	11.718	237.8
2026-03-18T15:10	-37.98480	-6.76019	11.655	235.0
2026-03-18T15:20	-38.00346	-6.79369	11.654	234.8
2026-03-18T15:30	-38.02162	-6.82663	11.415	235.1
2026-03-18T15:40	-38.03941	-6.85868	11.131	234.9
2026-03-18T15:50	-38.05644	-6.89158	11.174	236.8
2026-03-18T16:00	-38.07347	-6.92487	11.268	237.1
2026-03-18T16:10	-38.09067	-6.95845	11.369	237.1
2026-03-18T16:20	-38.10845	-6.99320	11.755	237.1
2026-03-18T16:30	-38.12649	-7.02839	11.912	237.0
2026-03-18T16:40	-38.14471	-7.06291	11.785	236.2
2026-03-18T16:50	-38.16335	-7.09790	11.979	236.0
2026-03-18T17:00	-38.18199	-7.13315	12.039	236.2
2026-03-18T17:10	-38.20079	-7.16833	12.051	235.9
2026-03-18T17:20	-38.21908	-7.20285	11.792	236.1
2026-03-18T17:30	-38.23737	-7.23699	11.700	235.8
2026-03-18T17:40	-38.25498	-7.27059	11.436	236.4
2026-03-18T17:50	-38.27248	-7.30405	11.378	236.4
2026-03-18T18:00	-38.28989	-7.33718	11.280	236.3
2026-03-18T18:10	-38.30689	-7.36963	11.037	236.4
2026-03-18T18:20	-38.32379	-7.40195	10.984	236.4
2026-03-18T18:30	-38.34076	-7.43446	11.042	236.5
2026-03-18T18:40	-38.35812	-7.46781	11.315	236.5
2026-03-18T18:50	-38.37580	-7.50160	11.482	236.4
2026-03-18T19:00	-38.39340	-7.53537	11.458	236.5
2026-03-18T19:10	-38.41076	-7.56872	11.309	236.5
2026-03-18T19:20	-38.42787	-7.60166	11.162	236.6
2026-03-18T19:30	-38.44489	-7.63448	11.116	236.6
2026-03-18T19:40	-38.46180	-7.66707	11.035	236.6
2026-03-18T19:50	-38.47864	-7.69958	11.000	236.6
2026-03-18T20:00	-38.49573	-7.73256	11.160	236.6
2026-03-18T20:10	-38.51289	-7.76576	11.225	236.7
2026-03-18T20:20	-38.53006	-7.79902	11.236	236.7
2026-03-18T20:30	-38.54729	-7.83240	11.278	236.7
2026-03-18T20:40	-38.56459	-7.86591	11.319	236.7
2026-03-18T20:50	-38.58225	-7.90024	11.580	236.8
2026-03-18T21:00	-38.59991	-7.93448	11.558	236.7
2026-03-18T21:10	-38.61747	-7.96863	11.516	236.8
2026-03-18T21:20	-38.63514	-8.00312	11.616	236.8
2026-03-18T21:30	-38.65280	-8.03744	11.570	236.7
2026-03-18T21:40	-38.67032	-8.07172	11.532	236.9
2026-03-18T21:50	-38.68779	-8.10589	11.495	236.9
2026-03-18T22:00	-38.70544	-8.14034	11.595	236.8
2026-03-18T22:10	-38.72256	-8.17391	11.279	236.9
2026-03-18T22:20	-38.73965	-8.20755	11.291	237.0
2026-03-18T22:30	-38.75679	-8.24111	11.280	236.9
2026-03-18T22:40	-38.77398	-8.27477	11.307	236.9
2026-03-18T22:50	-38.79063	-8.30766	11.020	237.1
2026-03-18T23:00	-38.80689	-8.33959	10.717	236.9
2026-03-18T23:10	-38.82270	-8.37086	10.470	237.1
2026-03-18T23:20	-38.83880	-8.40245	10.600	236.9
2026-03-18T23:30	-38.85508	-8.43462	10.772	237.1
2026-03-18T23:40	-38.87165	-8.46736	10.961	237.1
2026-03-18T23:50	-38.88851	-8.50064	11.141	237.1
2026-03-19T00:00	-38.90546	-8.53427	11.242	237.2
2026-03-19T00:10	-38.92258	-8.56819	11.341	237.1
2026-03-19T00:20	-38.93976	-8.60225	11.384	237.1
2026-03-19T00:30	-38.95718	-8.63686	11.557	237.2
2026-03-19T00:40	-38.97444	-8.67123	11.470	237.2
2026-03-19T00:50	-38.99187	-8.70596	11.582	237.3
2026-03-19T01:00	-39.00102	-8.74216	10.673	252.0
2026-03-19T01:10	-39.01857	-8.77438	11.023	235.1
2026-03-19T01:20	-39.03721	-8.80615	11.147	233.1
2026-03-19T01:30	-39.05609	-8.83829	11.280	233.0
2026-03-19T01:40	-39.07484	-8.87030	11.220	233.1
2026-03-19T01:50	-39.09119	-8.90340	10.978	237.6
2026-03-19T02:00	-39.10718	-8.93646	10.900	238.2
2026-03-19T02:10	-39.12398	-8.97021	11.217	237.4
2026-03-19T02:20	-39.14093	-9.00426	11.311	237.4
2026-03-19T02:30	-39.15807	-9.03871	11.445	237.4
2026-03-19T02:40	-39.17511	-9.07296	11.374	237.4
2026-03-19T02:50	-39.19210	-9.10727	11.377	237.5
2026-03-19T03:00	-39.20861	-9.14061	11.054	237.5
2026-03-19T03:10	-39.22496	-9.17359	10.934	237.5
2026-03-19T03:20	-39.24097	-9.20599	10.733	237.5
2026-03-19T03:30	-39.25704	-9.23847	10.761	237.5
2026-03-19T03:40	-39.27302	-9.27094	10.740	237.7
2026-03-19T03:50	-39.28945	-9.30428	11.028	237.6
2026-03-19T04:00	-39.30643	-9.33873	11.396	237.6
2026-03-19T04:10	-39.32378	-9.37401	11.661	237.7
2026-03-19T04:20	-39.34168	-9.41052	12.054	237.7
2026-03-19T04:30	-39.35987	-9.44754	12.228	237.7
2026-03-19T04:40	-39.37798	-9.48438	12.166	237.6
2026-03-19T04:50	-39.39624	-9.52185	12.345	237.8
2026-03-19T05:00	-39.41464	-9.55931	12.364	237.7
2026-03-19T05:10	-39.43257	-9.59610	12.114	237.8
2026-03-19T05:20	-39.45019	-9.63227	11.906	237.8
2026-03-19T05:30	-39.46776	-9.66826	11.855	237.8
2026-03-19T05:40	-39.48536	-9.70453	11.922	237.9
2026-03-19T05:50	-39.50312	-9.74100	11.996	237.8
2026-03-19T06:00	-39.52076	-9.77723	11.917	237.8
2026-03-19T06:10	-39.53850	-9.81380	12.013	237.9
2026-03-19T06:20	-39.55621	-9.85047	12.029	238.0
2026-03-19T06:30	-39.57353	-9.88615	11.720	237.9
2026-03-19T06:40	-39.59058	-9.92147	11.582	238.0
2026-03-19T06:50	-39.60758	-9.95666	11.536	238.0
2026-03-19T07:00	-39.62472	-9.99218	11.642	238.0
2026-03-19T07:10	-39.64190	-10.02791	11.694	238.1
2026-03-19T07:20	-39.65903	-10.06346	11.643	238.1
2026-03-19T07:30	-39.67635	-10.09949	11.790	238.1
2026-03-19T07:40	-39.69373	-10.13564	11.825	238.1
2026-03-19T07:50	-39.71088	-10.17143	11.697	238.2
2026-03-19T08:00	-39.72849	-10.20720	11.778	237.5
2026-03-19T08:10	-39.74583	-10.24288	11.702	237.8
2026-03-19T08:20	-39.76318	-10.27892	11.786	238.0
2026-03-19T08:30	-39.78046	-10.31476	11.725	238.0
2026-03-19T08:40	-39.79775	-10.35059	11.720	238.0
2026-03-19T08:50	-39.81489	-10.38610	11.615	237.9
2026-03-19T09:00	-39.83205	-10.42193	11.694	238.1
2026-03-19T09:10	-39.84984	-10.45812	11.895	237.4
2026-03-19T09:20	-39.86552	-10.49648	12.033	242.1
2026-03-19T09:30	-39.88245	-10.53335	11.890	239.2
2026-03-19T09:40	-39.89992	-10.56956	11.833	237.9
2026-03-19T09:50	-39.91732	-10.60596	11.861	238.2
2026-03-19T10:00	-39.93471	-10.64228	11.837	238.1
2026-03-19T10:10	-39.95169	-10.67793	11.603	238.2
2026-03-19T10:20	-39.96837	-10.71330	11.476	238.5
2026-03-19T10:30	-39.98482	-10.74821	11.322	238.5
2026-03-19T10:40	-40.00135	-10.78340	11.403	238.6
2026-03-19T10:50	-40.01803	-10.81894	11.512	238.6
2026-03-19T11:00	-40.03488	-10.85484	11.627	238.6
2026-03-19T11:10	-40.05183	-10.89100	11.701	238.6
2026-03-19T11:20	-40.06855	-10.92670	11.551	238.6
2026-03-19T11:30	-40.08517	-10.96219	11.480	238.6
2026-03-19T11:40	-40.10157	-10.99732	11.354	238.7
2026-03-19T11:50	-40.11774	-11.03207	11.216	238.8
2026-03-19T12:00	-40.13408	-11.06719	11.335	238.8
2026-03-19T12:10	-40.15060	-11.10260	11.435	238.7
2026-03-19T12:20	-40.16703	-11.13796	11.402	238.8
2026-03-19T12:30	-40.18342	-11.17323	11.372	238.8
2026-03-19T12:40	-40.19983	-11.20853	11.383	238.8
2026-03-19T12:50	-40.21628	-11.24405	11.440	238.8
2026-03-19T13:00	-40.23287	-11.27994	11.548	238.9
2026-03-19T13:10	-40.24927	-11.31552	11.442	238.9
2026-03-19T13:20	-40.26584	-11.35130	11.518	238.8
2026-03-19T13:30	-40.28262	-11.38768	11.695	238.9
2026-03-19T13:40	-40.29926	-11.42382	11.610	239.0
2026-03-19T13:50	-40.31565	-11.45946	11.443	239.0
2026-03-19T14:00	-40.33233	-11.49570	11.639	239.0
2026-03-19T14:10	-40.34901	-11.53196	11.641	239.0
2026-03-19T14:20	-40.36566	-11.56841	11.676	239.1
2026-03-19T14:30	-40.38243	-11.60498	11.724	239.1
2026-03-19T14:40	-40.39925	-11.64175	11.780	239.1
2026-03-19T14:50	-40.41617	-11.67875	11.851	239.1
2026-03-19T15:00	-40.43290	-11.71547	11.748	239.2
2026-03-19T15:10	-40.44978	-11.75253	11.852	239.2
2026-03-19T15:20	-40.46680	-11.78984	11.936	239.2
2026-03-19T15:30	-40.48394	-11.82759	12.059	239.2
2026-03-19T15:40	-40.50112	-11.86542	12.082	239.2
2026-03-19T15:50	-40.51828	-11.90325	12.077	239.2
2026-03-19T16:00	-40.53522	-11.94070	11.945	239.3
2026-03-19T16:10	-40.55234	-11.97848	12.053	239.3
2026-03-19T16:20	-40.56946	-12.01635	12.073	239.3
2026-03-19T16:30	-40.58652	-12.05421	12.056	239.4
2026-03-19T16:40	-40.60366	-12.09209	12.074	239.3
2026-03-19T16:50	-40.62079	-12.13025	12.137	239.5
2026-03-19T17:00	-40.63818	-12.16894	12.305	239.5
2026-03-19T17:10	-40.65574	-12.20801	12.425	239.4
2026-03-19T17:20	-40.67318	-12.24697	12.375	239.5
2026-03-19T17:30	-40.69061	-12.28568	12.310	239.4
2026-03-19T17:40	-40.70786	-12.32469	12.347	239.8
2026-03-19T17:50	-40.72525	-12.36333	12.281	239.4
2026-03-19T18:00	-40.74240	-12.40173	12.179	239.6
2026-03-19T18:10	-40.75938	-12.43984	12.078	239.6
2026-03-19T18:20	-40.77637	-12.47803	12.097	239.7
2026-03-19T18:30	-40.79323	-12.51593	12.004	239.7
2026-03-19T18:40	-40.80986	-12.55351	11.882	239.8
2026-03-19T18:50	-40.82638	-12.59070	11.767	239.7
2026-03-19T19:00	-40.84262	-12.62731	11.580	239.7
2026-03-19T19:10	-40.85877	-12.66381	11.537	239.8
2026-03-19T19:20	-40.87486	-12.70024	11.504	239.8
2026-03-19T19:30	-40.89087	-12.73652	11.453	239.8
2026-03-19T19:40	-40.90682	-12.77277	11.433	239.9
2026-03-19T19:50	-40.92290	-12.80923	11.504	239.8
2026-03-19T20:00	-40.93883	-12.84538	11.403	239.8
2026-03-19T20:10	-40.95456	-12.88126	11.299	240.0
2026-03-19T20:20	-40.97025	-12.91705	11.271	239.9
2026-03-19T20:30	-40.98218	-12.95425	11.006	247.1
2026-03-19T20:40	-40.98828	-12.99573	11.516	259.0
2026-03-19T20:50	-40.99436	-13.03751	11.591	259.1
2026-03-19T21:00	-41.00048	-13.07869	11.434	258.9
2026-03-19T21:10	-41.00644	-13.11945	11.306	259.1
2026-03-19T21:20	-41.01256	-13.16031	11.347	258.8
2026-03-19T21:30	-41.01848	-13.20163	11.455	259.3
2026-03-19T21:40	-41.02462	-13.24319	11.530	258.9
2026-03-19T21:50	-41.03069	-13.28463	11.496	259.0
2026-03-19T22:00	-41.03676	-13.32631	11.554	259.1
2026-03-19T22:10	-41.04294	-13.36739	11.405	258.8
2026-03-19T22:20	-41.04910	-13.40817	11.320	258.7
2026-03-19T22:30	-41.05525	-13.44870	11.252	258.6
2026-03-19T22:40	-41.06151	-13.49001	11.468	258.7
2026-03-19T22:50	-41.06768	-13.53081	11.323	258.7
2026-03-19T23:00	-41.07384	-13.57132	11.247	258.6
2026-03-19T23:10	-41.07995	-13.61204	11.297	258.8
2026-03-19T23:20	-41.08601	-13.65204	11.098	258.7
2026-03-19T23:30	-41.09206	-13.69180	11.033	258.6
2026-03-19T23:40	-41.09809	-13.73170	11.070	258.7
2026-03-19T23:50	-41.10416	-13.77196	11.167	258.7
2026-03-20T00:00	-41.11022	-13.81199	11.103	258.7
2026-03-20T00:10	-41.11623	-13.85167	11.006	258.7
2026-03-20T00:20	-41.12216	-13.89132	10.990	258.8
2026-03-20T00:30	-41.12818	-13.93101	11.008	258.6
2026-03-20T00:40	-41.13440	-13.97074	11.032	258.3
2026-03-20T00:50	-41.14048	-14.01053	11.037	258.6
2026-03-20T01:00	-41.14669	-14.05056	11.109	258.4
2026-03-20T01:10	-41.15297	-14.09153	11.363	258.5
2026-03-20T01:20	-41.15907	-14.13300	11.482	259.0
2026-03-20T01:30	-41.16522	-14.17431	11.442	258.9
2026-03-20T01:40	-41.17122	-14.21570	11.452	259.1
2026-03-20T01:50	-41.17756	-14.25738	11.552	258.6
2026-03-20T02:00	-41.18401	-14.29959	11.701	258.5
2026-03-20T02:10	-41.19047	-14.34206	11.768	258.6
2026-03-20T02:20	-41.19707	-14.38515	11.943	258.5
2026-03-20T02:30	-41.20373	-14.42871	12.072	258.5
2026-03-20T02:40	-41.21041	-14.47227	12.071	258.5
2026-03-20T02:50	-41.21700	-14.51547	11.966	258.6
2026-03-20T03:00	-41.22372	-14.55924	12.130	258.5
2026-03-20T03:10	-41.23041	-14.60310	12.147	258.6
2026-03-20T03:20	-41.23711	-14.64691	12.134	258.5
2026-03-20T03:30	-41.24378	-14.69058	12.094	258.6
2026-03-20T03:40	-41.25043	-14.73409	12.048	258.5
2026-03-20T03:50	-41.25716	-14.77794	12.145	258.5
2026-03-20T04:00	-41.26388	-14.82192	12.176	258.5
2026-03-20T04:10	-41.27055	-14.86562	12.098	258.6
2026-03-20T04:20	-41.27717	-14.90906	12.024	258.6
2026-03-20T04:30	-41.28373	-14.95200	11.883	258.5
2026-03-20T04:40	-41.29036	-14.99511	11.934	258.5
2026-03-20T04:50	-41.29693	-15.03843	11.985	258.6
2026-03-20T05:00	-41.30363	-15.08212	12.091	258.5
2026-03-20T05:10	-41.31038	-15.12630	12.223	258.5
2026-03-20T05:20	-41.31705	-15.17005	12.101	258.6
2026-03-20T05:30	-41.32381	-15.21402	12.168	258.5
2026-03-20T05:40	-41.33051	-15.25796	12.152	258.6
2026-03-20T05:50	-41.33722	-15.30192	12.155	258.5
2026-03-20T06:00	-41.34389	-15.34572	12.111	258.6
2026-03-20T06:10	-41.35055	-15.38947	12.096	258.6
2026-03-20T06:20	-41.35713	-15.43239	11.868	258.5
2026-03-20T06:30	-41.36359	-15.47470	11.697	258.5
2026-03-20T06:40	-41.36987	-15.51594	11.398	258.6
2026-03-20T06:50	-41.37613	-15.55706	11.363	258.6
2026-03-20T07:00	-41.38254	-15.59898	11.588	258.5
2026-03-20T07:10	-41.38901	-15.64140	11.722	258.5
2026-03-20T07:20	-41.39548	-15.68390	11.743	258.6
2026-03-20T07:30	-41.40198	-15.72637	11.733	258.5
2026-03-20T07:40	-41.40847	-15.76881	11.725	258.5
2026-03-20T07:50	-41.41497	-15.81153	11.800	258.6
2026-03-20T08:00	-41.42142	-15.85380	11.675	258.5
2026-03-20T08:10	-41.42780	-15.89569	11.569	258.5
2026-03-20T08:20	-41.43418	-15.93755	11.557	258.5
2026-03-20T08:30	-41.44060	-15.97945	11.573	258.5
2026-03-20T08:40	-41.44695	-16.02123	11.535	258.6
2026-03-20T08:50	-41.45325	-16.06267	11.439	258.6
2026-03-20T09:00	-41.45949	-16.10368	11.319	258.6
2026-03-20T09:10	-41.46585	-16.14528	11.482	258.5
2026-03-20T09:20	-41.47218	-16.18684	11.471	258.6
2026-03-20T09:30	-41.47851	-16.22843	11.476	258.5
2026-03-20T09:40	-41.48488	-16.27027	11.544	258.5
2026-03-20T09:50	-41.49133	-16.31255	11.667	258.5
2026-03-20T10:00	-41.49773	-16.35472	11.633	258.6
2026-03-20T10:10	-41.50418	-16.39697	11.654	258.5
2026-03-20T10:20	-41.51062	-16.43937	11.696	258.6
2026-03-20T10:30	-41.51702	-16.48132	11.571	258.5
2026-03-20T10:40	-41.52348	-16.52368	11.680	258.5
2026-03-20T10:50	-41.52987	-16.56557	11.552	258.5
2026-03-20T11:00	-41.53618	-16.60713	11.458	258.6
2026-03-20T11:10	-41.54263	-16.64942	11.658	258.5
2026-03-20T11:20	-41.54901	-16.69136	11.562	258.5
2026-03-20T11:30	-41.55537	-16.73316	11.522	258.5
2026-03-20T11:40	-41.56177	-16.77530	11.612	258.6
2026-03-20T11:50	-41.56820	-16.81755	11.644	258.5
2026-03-20T12:00	-41.57465	-16.86000	11.696	258.6
2026-03-20T12:10	-41.58090	-16.90118	11.345	258.6
2026-03-20T12:20	-41.58728	-16.94319	11.572	258.6
2026-03-20T12:30	-41.59369	-16.98503	11.527	258.5
2026-03-20T12:40	-41.59996	-17.02641	11.399	258.6
2026-03-20T12:50	-41.60619	-17.06745	11.302	258.6
2026-03-20T13:00	-41.61228	-17.10751	11.032	258.5
2026-03-20T13:10	-41.61785	-17.14397	10.040	258.5
2026-03-20T13:20	-41.62120	-17.16593	6.047	258.5
2026-03-20T13:30	-41.62450	-17.18781	6.025	258.6
2026-03-20T13:40	-41.62863	-17.21502	7.489	258.6
2026-03-20T13:50	-41.63410	-17.25096	9.896	258.5
2026-03-20T14:00	-41.63994	-17.28937	10.574	258.5
2026-03-20T14:10	-41.64645	-17.33229	11.812	258.6
2026-03-20T14:20	-41.65291	-17.37479	11.698	258.5
2026-03-20T14:30	-41.65942	-17.41768	11.801	258.5
2026-03-20T14:40	-41.66593	-17.46046	11.772	258.5
2026-03-20T14:50	-41.67243	-17.50323	11.767	258.5
2026-03-20T15:00	-41.67894	-17.54603	11.776	258.5
2026-03-20T15:10	-41.68548	-17.58915	11.862	258.5
2026-03-20T15:20	-41.69191	-17.63160	11.673	258.6
2026-03-20T15:30	-41.69833	-17.67388	11.629	258.6
2026-03-20T15:40	-41.70480	-17.71648	11.715	258.5
2026-03-20T15:50	-41.71118	-17.75861	11.584	258.6
2026-03-20T16:00	-41.71737	-17.79944	11.223	258.6
2026-03-20T16:10	-41.72368	-17.84073	11.355	258.5
2026-03-20T16:20	-41.72993	-17.88199	11.341	258.6
2026-03-20T16:30	-41.73618	-17.92332	11.359	258.6
2026-03-20T16:40	-41.74242	-17.96439	11.287	258.5
2026-03-20T16:50	-41.74862	-18.00521	11.220	258.5
2026-03-20T17:00	-41.75484	-18.04633	11.296	258.6
2026-03-20T17:10	-41.76118	-18.08829	11.529	258.6
2026-03-20T17:20	-41.76760	-18.13047	11.587	258.5
2026-03-20T17:30	-41.77400	-18.17257	11.567	258.5
2026-03-20T17:40	-41.78042	-18.21501	11.657	258.6
2026-03-20T17:50	-41.78682	-18.25697	11.526	258.5
2026-03-20T18:00	-41.79300	-18.29790	11.239	258.6
2026-03-20T18:10	-41.79924	-18.33914	11.322	258.5
2026-03-20T18:20	-41.80552	-18.38061	11.386	258.6
2026-03-20T18:30	-41.81170	-18.42124	11.157	258.5
2026-03-20T18:40	-41.81784	-18.46171	11.110	258.5
2026-03-20T18:50	-41.82402	-18.50236	11.158	258.5
2026-03-20T19:00	-41.83011	-18.54258	11.039	258.5
2026-03-20T19:10	-41.83629	-18.58348	11.223	258.6
2026-03-20T19:20	-41.84256	-18.62509	11.416	258.6
2026-03-20T19:30	-41.84887	-18.66669	11.415	258.5
2026-03-20T19:40	-41.85518	-18.70815	11.377	258.5
2026-03-20T19:50	-41.86139	-18.74926	11.276	258.6
2026-03-20T20:00	-41.86768	-18.79075	11.382	258.5
2026-03-20T20:10	-41.87401	-18.83247	11.443	258.5
2026-03-20T20:20	-41.88031	-18.87429	11.468	258.6
2026-03-20T20:30	-41.88666	-18.91621	11.495	258.5
2026-03-20T20:40	-41.89311	-18.95879	11.674	258.5
2026-03-20T20:50	-41.89958	-19.00159	11.734	258.6
2026-03-20T21:00	-41.90606	-19.04425	11.697	258.5
2026-03-20T21:10	-41.91251	-19.08684	11.675	258.5
2026-03-20T21:20	-41.91893	-19.12936	11.654	258.6
2026-03-20T21:30	-41.92527	-19.17133	11.500	258.6
2026-03-20T21:40	-41.93159	-19.21289	11.391	258.5
2026-03-20T21:50	-41.93785	-19.25450	11.399	258.6
2026-03-20T22:00	-41.94414	-19.29606	11.388	258.5
2026-03-20T22:10	-41.95056	-19.33847	11.619	258.5
2026-03-20T22:20	-41.95694	-19.38080	11.592	258.6
2026-03-20T22:30	-41.96342	-19.42345	11.684	258.5
2026-03-20T22:40	-41.96990	-19.46632	11.741	258.5
2026-03-20T22:50	-41.97629	-19.50872	11.610	258.6
2026-03-20T23:00	-41.98259	-19.55043	11.419	258.5
2026-03-20T23:10	-41.98893	-19.59251	11.520	258.6
2026-03-20T23:20	-41.99535	-19.63475	11.566	258.5
2026-03-20T23:30	-42.00165	-19.67654	11.438	258.6
2026-03-20T23:40	-42.00805	-19.71889	11.591	258.5
2026-03-20T23:50	-42.01449	-19.76154	11.673	258.5
2026-03-21T00:00	-42.02093	-19.80396	11.610	258.5
2026-03-21T00:10	-42.02722	-19.84589	11.469	258.6
2026-03-21T00:20	-42.03357	-19.88776	11.457	258.5
2026-03-21T00:30	-42.03993	-19.92989	11.526	258.5
2026-03-21T00:40	-42.04632	-19.97232	11.604	258.6
2026-03-21T00:50	-42.05274	-20.01466	11.581	258.5
2026-03-21T01:00	-42.05919	-20.05747	11.706	258.6
2026-03-21T01:10	-42.06562	-20.10001	11.635	258.5
2026-03-21T01:20	-42.07207	-20.14286	11.715	258.6
2026-03-21T01:30	-42.07866	-20.18656	11.946	258.5
2026-03-21T01:40	-42.08533	-20.23071	12.070	258.5
2026-03-21T01:50	-42.09206	-20.27533	12.196	258.5
2026-03-21T02:00	-42.09889	-20.32051	12.349	258.5
2026-03-21T02:10	-42.10566	-20.36542	12.274	258.5
2026-03-21T02:20	-42.11224	-20.40903	11.915	258.5
2026-03-21T02:30	-42.11875	-20.45224	11.806	258.5
2026-03-21T02:40	-42.12525	-20.49536	11.780	258.6
2026-03-21T02:50	-42.13177	-20.53853	11.794	258.5
2026-03-21T03:00	-42.13825	-20.58146	11.725	258.5
2026-03-21T03:10	-42.14466	-20.62389	11.591	258.5
2026-03-21T03:20	-42.15111	-20.66686	11.732	258.6
2026-03-21T03:30	-42.15754	-20.70958	11.664	258.5
2026-03-21T03:40	-42.16400	-20.75235	11.679	258.5
2026-03-21T03:50	-42.17048	-20.79530	11.724	258.5
2026-03-21T04:00	-42.17704	-20.83888	11.895	258.5
2026-03-21T04:10	-42.18364	-20.88267	11.953	258.5
2026-03-21T04:20	-42.19026	-20.92662	11.996	258.5
2026-03-21T04:30	-42.19694	-20.97093	12.091	258.5
2026-03-21T04:40	-42.20354	-21.01477	11.963	258.5
2026-03-21T04:50	-42.21017	-21.05871	11.991	258.5
2026-03-21T05:00	-42.21679	-21.10281	12.029	258.6
2026-03-21T05:10	-42.22339	-21.14668	11.965	258.5
2026-03-21T05:20	-42.22993	-21.19004	11.828	258.5
2026-03-21T05:30	-42.23640	-21.23302	11.722	258.5
2026-03-21T05:40	-42.24289	-21.27610	11.748	258.5
2026-03-21T05:50	-42.24934	-21.31898	11.690	258.6
2026-03-21T06:00	-42.25586	-21.36209	11.756	258.5
2026-03-21T06:10	-42.26245	-21.40592	11.949	258.6
2026-03-21T06:20	-42.26902	-21.44964	11.917	258.5
2026-03-21T06:30	-42.27562	-21.49362	11.986	258.6
2026-03-21T06:40	-42.28233	-21.53817	12.140	258.5
2026-03-21T06:50	-42.28908	-21.58305	12.230	258.6
2026-03-21T07:00	-42.29581	-21.62757	12.131	258.5
2026-03-21T07:10	-42.30241	-21.67153	11.976	258.6
2026-03-21T07:20	-42.30905	-21.71587	12.079	258.6
2026-03-21T07:30	-42.31570	-21.76012	12.052	258.6
2026-03-21T07:40	-42.32241	-21.80459	12.113	258.5
2026-03-21T07:50	-42.32900	-21.84846	11.944	258.6
2026-03-21T08:00	-42.33549	-21.89169	11.773	258.5
2026-03-21T08:10	-42.34207	-21.93548	11.922	258.6
2026-03-21T08:20	-42.34863	-21.97921	11.905	258.6
2026-03-21T08:30	-42.35512	-22.02240	11.755	258.5
2026-03-21T08:40	-42.36156	-22.06537	11.695	258.6
2026-03-21T08:50	-42.36811	-22.10865	11.783	258.4
2026-03-21T09:00	-42.37464	-22.15243	11.908	258.6
2026-03-21T09:10	-42.38131	-22.19678	12.068	258.5
2026-03-21T09:20	-42.38792	-22.24084	11.987	258.6
2026-03-21T09:30	-42.39449	-22.28464	11.914	258.6
2026-03-21T09:40	-42.40103	-22.32815	11.835	258.5
2026-03-21T09:50	-42.40756	-22.37158	11.813	258.5
2026-03-21T10:00	-42.41403	-22.41462	11.705	258.5
2026-03-21T10:10	-42.42043	-22.45742	11.635	258.6
2026-03-21T10:20	-42.42681	-22.49987	11.545	258.5
2026-03-21T10:30	-42.43318	-22.54235	11.549	258.5
2026-03-21T10:40	-42.43956	-22.58491	11.567	258.6
2026-03-21T10:50	-42.44596	-22.62749	11.574	258.5
2026-03-21T11:00	-42.45229	-22.66962	11.452	258.5
2026-03-21T11:10	-42.45873	-22.71257	11.671	258.6
2026-03-21T11:20	-42.46524	-22.75600	11.803	258.5
2026-03-21T11:30	-42.47181	-22.79975	11.885	258.5
2026-03-21T11:40	-42.47834	-22.84330	11.832	258.5
2026-03-21T11:50	-42.48485	-22.88672	11.795	258.5
2026-03-21T12:00	-42.49122	-22.92916	11.529	258.5
2026-03-21T12:10	-42.49763	-22.97189	11.605	258.5
2026-03-21T12:20	-42.50409	-23.01495	11.695	258.5
2026-03-21T12:30	-42.51056	-23.05827	11.761	258.6
2026-03-21T12:40	-42.51705	-23.10137	11.702	258.5
2026-03-21T12:50	-42.52340	-23.14383	11.527	258.6
2026-03-21T13:00	-42.52980	-23.18657	11.602	258.5
2026-03-21T13:10	-42.53617	-23.22914	11.553	258.5
2026-03-21T13:20	-42.54254	-23.27178	11.572	258.6
2026-03-21T13:30	-42.54891	-23.31423	11.520	258.5
2026-03-21T13:40	-42.55521	-23.35626	11.405	258.5
2026-03-21T13:50	-42.56147	-23.39813	11.360	258.6
2026-03-21T14:00	-42.56778	-23.44016	11.400	258.5
2026-03-21T14:10	-42.57410	-23.48223	11.414	258.5
2026-03-21T14:20	-42.58033	-23.52399	11.325	258.6
2026-03-21T14:30	-42.58662	-23.56600	11.394	258.6
2026-03-21T14:40	-42.59280	-23.60760	11.278	258.6
2026-03-21T14:50	-42.59966	-23.64902	11.281	257.3
2026-03-21T15:00	-42.60669	-23.69079	11.383	257.2
2026-03-21T15:10	-42.61397	-23.73264	11.424	256.7
2026-03-21T15:20	-42.62125	-23.77433	11.378	256.7
2026-03-21T15:30	-42.62866	-23.81608	11.408	256.5
2026-03-21T15:40	-42.63631	-23.85786	11.432	256.1
2026-03-21T15:50	-42.64335	-23.89941	11.322	257.1
2026-03-21T16:00	-42.64941	-23.94109	11.279	258.8
2026-03-21T16:10	-42.65508	-23.98291	11.291	259.6
2026-03-21T16:20	-42.66045	-24.02450	11.209	260.1
2026-03-21T16:30	-42.66590	-24.06619	11.239	259.9
2026-03-21T16:40	-42.67135	-24.10832	11.354	260.0
2026-03-21T16:50	-42.67692	-24.15039	11.345	259.8
2026-03-21T17:00	-42.68246	-24.19262	11.383	259.9
2026-03-21T17:10	-42.68794	-24.23423	11.216	259.9
2026-03-21T17:20	-42.69393	-24.27586	11.255	258.9
2026-03-21T17:30	-42.69990	-24.31754	11.264	259.0
2026-03-21T17:40	-42.70590	-24.35919	11.259	258.9
2026-03-21T17:50	-42.71183	-24.40041	11.141	258.9
2026-03-21T18:00	-42.71773	-24.44178	11.177	259.0
2026-03-21T18:10	-42.72380	-24.48340	11.252	258.8
2026-03-21T18:20	-42.72994	-24.52458	11.143	258.5
2026-03-21T18:30	-42.73616	-24.56609	11.231	258.5
2026-03-21T18:40	-42.74233	-24.60755	11.217	258.6
2026-03-21T18:50	-42.74860	-24.64951	11.350	258.5
2026-03-21T19:00	-42.75487	-24.69152	11.361	258.5
2026-03-21T19:10	-42.76120	-24.73378	11.432	258.5
2026-03-21T19:20	-42.76754	-24.77641	11.524	258.6
2026-03-21T19:30	-42.77387	-24.81889	11.486	258.6
2026-03-21T19:40	-42.78015	-24.86091	11.362	258.5
2026-03-21T19:50	-42.78641	-24.90264	11.283	258.5
2026-03-21T20:00	-42.79250	-24.94374	11.108	258.6
2026-03-21T20:10	-42.79867	-24.98495	11.139	258.5
2026-03-21T20:20	-42.80485	-25.02647	11.221	258.6
2026-03-21T20:30	-42.81104	-25.06789	11.193	258.5
2026-03-21T20:40	-42.81721	-25.10923	11.172	258.5
2026-03-21T20:50	-42.82337	-25.15046	11.139	258.5
2026-03-21T21:00	-42.82956	-25.19204	11.234	258.6
2026-03-21T21:10	-42.83577	-25.23370	11.251	258.5
2026-03-21T21:20	-42.84192	-25.27530	11.234	258.6
2026-03-21T21:30	-42.84818	-25.31679	11.211	258.4
2026-03-21T21:40	-42.85432	-25.35825	11.192	258.6
2026-03-21T21:50	-42.86046	-25.39930	11.086	258.5
2026-03-21T22:00	-42.86666	-25.44093	11.238	258.5
2026-03-21T22:10	-42.87295	-25.48318	11.405	258.5
2026-03-21T22:20	-42.87925	-25.52559	11.447	258.6
2026-03-21T22:30	-42.88547	-25.56732	11.263	258.5
2026-03-21T22:40	-42.89171	-25.60919	11.299	258.5
2026-03-21T22:50	-42.89793	-25.65085	11.244	258.5
2026-03-21T23:00	-42.90413	-25.69279	11.313	258.6
2026-03-21T23:10	-42.91039	-25.73447	11.252	258.4
2026-03-21T23:20	-42.91650	-25.77583	11.151	258.6
2026-03-21T23:30	-42.92258	-25.81639	10.946	258.5
2026-03-21T23:40	-42.92866	-25.85724	11.017	258.5
2026-03-21T23:50	-42.93480	-25.89842	11.107	258.5
2026-03-22T00:00	-42.94092	-25.93964	11.115	258.6
2026-03-22T00:10	-42.94712	-25.98137	11.251	258.6
2026-03-22T00:20	-42.95331	-26.02294	11.208	258.5
2026-03-22T00:30	-42.95952	-26.06463	11.240	258.5
2026-03-22T00:40	-42.96573	-26.10652	11.289	258.6
2026-03-22T00:50	-42.97186	-26.14755	11.063	258.5
2026-03-22T01:00	-42.97794	-26.18847	11.027	258.6
2026-03-22T01:10	-42.98401	-26.22927	10.995	258.5
2026-03-22T01:20	-42.99009	-26.27018	11.023	258.5
2026-03-22T01:30	-42.99626	-26.31154	11.145	258.5
2026-03-22T01:40	-43.00241	-26.35309	11.189	258.6
2026-03-22T01:50	-43.00870	-26.39524	11.358	258.5
2026-03-22T02:00	-43.01503	-26.43787	11.479	258.5
2026-03-22T02:10	-43.02138	-26.48050	11.482	258.5
2026-03-22T02:20	-43.02766	-26.52302	11.447	258.6
2026-03-22T02:30	-43.03396	-26.56540	11.412	258.5
2026-03-22T02:40	-43.04028	-26.60788	11.438	258.5
2026-03-22T02:50	-43.04663	-26.65040	11.449	258.5
2026-03-22T03:00	-43.05291	-26.69285	11.424	258.6
2026-03-22T03:10	-43.05924	-26.73558	11.499	258.6
2026-03-22T03:20	-43.06558	-26.77817	11.464	258.5
2026-03-22T03:30	-43.07194	-26.82102	11.530	258.5
2026-03-22T03:40	-43.07832	-26.86386	11.528	258.5
2026-03-22T03:50	-43.08465	-26.90654	11.482	258.6
2026-03-22T04:00	-43.09108	-26.94973	11.619	258.5
2026-03-22T04:10	-43.09749	-26.99303	11.647	258.6
2026-03-22T04:20	-43.10397	-27.03669	11.741	258.5
2026-03-22T04:30	-43.11043	-27.08006	11.665	258.5
2026-03-22T04:40	-43.11686	-27.12341	11.657	258.5
2026-03-22T04:50	-43.12334	-27.16713	11.755	258.6
2026-03-22T05:00	-43.12992	-27.21149	11.925	258.5
2026-03-22T05:10	-43.13655	-27.25622	12.023	258.5
2026-03-22T05:20	-43.14321	-27.30109	12.062	258.5
2026-03-22T05:30	-43.14981	-27.34552	11.941	258.5
2026-03-22T05:40	-43.15647	-27.39031	12.036	258.5
2026-03-22T05:50	-43.16313	-27.43514	12.046	258.5
2026-03-22T06:00	-43.16969	-27.47963	11.950	258.6
2026-03-22T06:10	-43.17625	-27.52383	11.874	258.5
2026-03-22T06:20	-43.18282	-27.56820	11.918	258.6
2026-03-22T06:30	-43.18941	-27.61248	11.893	258.5
2026-03-22T06:40	-43.19598	-27.65698	11.950	258.6
2026-03-22T06:50	-43.20258	-27.70134	11.914	258.5
2026-03-22T07:00	-43.20911	-27.74544	11.838	258.6
2026-03-22T07:10	-43.21565	-27.78965	11.870	258.6
2026-03-22T07:20	-43.22214	-27.83345	11.756	258.5
2026-03-22T07:30	-43.22859	-27.87695	11.677	258.5
2026-03-22T07:40	-43.23505	-27.92069	11.737	258.6
2026-03-22T07:50	-43.24150	-27.96412	11.656	258.5
2026-03-22T08:00	-43.24780	-28.00676	11.439	258.6
2026-03-22T08:10	-43.25416	-28.04975	11.534	258.6
2026-03-22T08:20	-43.26046	-28.09225	11.402	258.5
2026-03-22T08:30	-43.26673	-28.13474	11.397	258.6
2026-03-22T08:40	-43.27306	-28.17740	11.440	258.5
2026-03-22T08:50	-43.27930	-28.21956	11.309	258.5
2026-03-22T09:00	-43.28549	-28.26145	11.232	258.6
2026-03-22T09:10	-43.29177	-28.30375	11.344	258.5
2026-03-22T09:20	-43.29800	-28.34577	11.267	258.5
2026-03-22T09:30	-43.30419	-28.38773	11.246	258.6
2026-03-22T09:40	-43.31046	-28.43003	11.339	258.5
2026-03-22T09:50	-43.31675	-28.47253	11.393	258.5
2026-03-22T10:00	-43.32312	-28.51547	11.508	258.5
2026-03-22T10:10	-43.32958	-28.55910	11.692	258.5
2026-03-22T10:20	-43.33593	-28.60225	11.559	258.6
2026-03-22T10:30	-43.34212	-28.64423	11.246	258.6
2026-03-22T10:40	-43.34843	-28.68662	11.357	258.5
2026-03-22T10:50	-43.35471	-28.72944	11.467	258.6
2026-03-22T11:00	-43.36116	-28.77292	11.646	258.5
2026-03-22T11:10	-43.36765	-28.81700	11.803	258.6
2026-03-22T11:20	-43.37414	-28.86084	11.740	258.5
2026-03-22T11:30	-43.38061	-28.90451	11.693	258.5
2026-03-22T11:40	-43.38703	-28.94798	11.638	258.5
2026-03-22T11:50	-43.39347	-28.99151	11.652	258.5
2026-03-22T12:00	-43.39991	-29.03511	11.668	258.5
2026-03-22T12:10	-43.40627	-29.07826	11.547	258.6
2026-03-22T12:20	-43.41257	-29.12106	11.453	258.6
2026-03-22T12:30	-43.41886	-29.16360	11.383	258.5
2026-03-22T12:40	-43.42511	-29.20569	11.262	258.5
2026-03-22T12:50	-43.43125	-29.24751	11.186	258.6
2026-03-22T13:00	-43.43738	-29.28895	11.086	258.5
2026-03-22T13:10	-43.44349	-29.33039	11.080	258.6
2026-03-22T13:20	-43.44955	-29.37147	10.988	258.5
2026-03-22T13:30	-43.45560	-29.41237	10.938	258.5
2026-03-22T13:40	-43.46165	-29.45343	10.977	258.6
2026-03-22T13:50	-43.46772	-29.49467	11.026	258.6
2026-03-22T14:00	-43.47373	-29.53545	10.901	258.6
2026-03-22T14:10	-43.47972	-29.57616	10.879	258.6
2026-03-22T14:20	-43.48570	-29.61658	10.805	258.5
2026-03-22T14:30	-43.49173	-29.65718	10.854	258.5
2026-03-22T14:40	-43.49770	-29.69794	10.887	258.6
2026-03-22T14:50	-43.50369	-29.73870	10.890	258.6
2026-03-22T15:00	-43.50972	-29.77945	10.888	258.5
2026-03-22T15:10	-43.51579	-29.82034	10.927	258.5
2026-03-22T15:20	-43.52185	-29.86179	11.069	258.6
2026-03-22T15:30	-43.52799	-29.90331	11.090	258.5
2026-03-22T15:40	-43.53406	-29.94466	11.042	258.6
2026-03-22T15:50	-43.54019	-29.98596	11.030	258.5
2026-03-22T16:00	-43.54630	-30.02775	11.155	258.6
2026-03-22T16:10	-43.55254	-30.06993	11.264	258.5
2026-03-22T16:20	-43.55866	-30.11163	11.130	258.6
2026-03-22T16:30	-43.56482	-30.15322	11.102	258.5
2026-03-22T16:40	-43.57099	-30.19523	11.213	258.6
2026-03-22T16:50	-43.57730	-30.23804	11.425	258.5
2026-03-22T17:00	-43.58364	-30.28102	11.467	258.5
2026-03-22T17:10	-43.58999	-30.32434	11.559	258.6
2026-03-22T17:20	-43.59644	-30.36791	11.625	258.5
2026-03-22T17:30	-43.60279	-30.41107	11.513	258.5
2026-03-22T17:40	-43.60906	-30.45369	11.370	258.6
2026-03-22T17:50	-43.61537	-30.49652	11.422	258.5
2026-03-22T18:00	-43.62169	-30.53951	11.464	258.5
2026-03-22T18:10	-43.62806	-30.58303	11.602	258.6
2026-03-22T18:20	-43.63446	-30.62637	11.557	258.5
2026-03-22T18:30	-43.64086	-30.66963	11.537	258.5
2026-03-22T18:40	-43.64715	-30.71275	11.488	258.6
2026-03-22T18:50	-43.65355	-30.75533	11.360	258.3
2026-03-22T19:00	-43.65995	-30.79785	11.343	258.3
2026-03-22T19:10	-43.66644	-30.84054	11.390	258.1
2026-03-22T19:20	-43.67258	-30.88384	11.523	258.9
2026-03-22T19:30	-43.67856	-30.92713	11.506	259.2
2026-03-22T19:40	-43.68457	-30.96942	11.250	258.9
2026-03-22T19:50	-43.69056	-31.01117	11.112	258.8
2026-03-22T20:00	-43.69661	-31.05348	11.257	258.8
2026-03-22T20:10	-43.70264	-31.09571	11.233	258.9
2026-03-22T20:20	-43.70847	-31.13865	11.401	259.4
2026-03-22T20:30	-43.71463	-31.18141	11.377	258.8
2026-03-22T20:40	-43.72125	-31.22402	11.373	257.9
2026-03-22T20:50	-43.72793	-31.26724	11.529	258.0
2026-03-22T21:00	-43.73461	-31.31061	11.566	258.0
2026-03-22T21:10	-43.74127	-31.35340	11.415	257.9
2026-03-22T21:20	-43.74796	-31.39720	11.676	258.1
2026-03-22T21:30	-43.75474	-31.44121	11.733	258.0
2026-03-22T21:40	-43.76164	-31.48551	11.815	257.9
2026-03-22T21:50	-43.76854	-31.53074	12.051	258.1
2026-03-22T22:00	-43.77542	-31.57537	11.897	258.0
2026-03-22T22:10	-43.78220	-31.61912	11.661	257.9
2026-03-22T22:20	-43.78887	-31.66244	11.542	258.0
2026-03-22T22:30	-43.79447	-31.70613	11.564	259.9
2026-03-22T22:40	-43.80023	-31.75050	11.745	259.8
2026-03-22T22:50	-43.80582	-31.79420	11.565	260.0
2026-03-22T23:00	-43.81230	-31.83780	11.597	258.4
2026-03-22T23:10	-43.81896	-31.88151	11.637	258.1
2026-03-22T23:20	-43.82565	-31.92511	11.608	258.0
2026-03-22T23:30	-43.83252	-31.96922	11.751	257.8
2026-03-22T23:40	-43.83932	-32.01318	11.707	257.9
2026-03-22T23:50	-43.84604	-32.05663	11.571	257.9
2026-03-23T00:00	-43.85264	-32.09986	11.502	258.1
2026-03-23T00:10	-43.85926	-32.14411	11.763	258.3
2026-03-23T00:20	-43.86612	-32.18793	11.671	257.8
2026-03-23T00:30	-43.87287	-32.23164	11.633	257.9
2026-03-23T00:40	-43.87965	-32.27538	11.642	257.9
2026-03-23T00:50	-43.88630	-32.31892	11.579	258.1
2026-03-23T01:00	-43.89263	-32.36246	11.557	258.6
2026-03-23T01:10	-43.89825	-32.40592	11.486	259.9
2026-03-23T01:20	-43.90375	-32.44911	11.408	260.0
2026-03-23T01:30	-43.90987	-32.49171	11.297	258.7
2026-03-23T01:40	-43.91578	-32.53435	11.293	259.1
2026-03-23T01:50	-43.92173	-32.57755	11.435	259.2
2026-03-23T02:00	-43.92762	-32.61992	11.221	259.1
2026-03-23T02:10	-43.93360	-32.66231	11.227	258.9
2026-03-23T02:20	-43.93969	-32.70449	11.184	258.7
2026-03-23T02:30	-43.94558	-32.74699	11.250	259.1
2026-03-23T02:40	-43.95160	-32.78953	11.267	258.9
2026-03-23T02:50	-43.95757	-32.83154	11.128	258.9
2026-03-23T03:00	-43.96341	-32.87344	11.092	259.1
2026-03-23T03:10	-43.96933	-32.91528	11.079	258.9
2026-03-23T03:20	-43.97536	-32.95738	11.152	258.8
2026-03-23T03:30	-43.98188	-32.99938	11.161	257.8
2026-03-23T03:40	-43.98845	-33.04162	11.225	257.8
2026-03-23T03:50	-43.99483	-33.08358	11.137	258.1
2026-03-23T04:00	-44.00142	-33.12581	11.221	257.8
2026-03-23T04:10	-44.00792	-33.16873	11.387	258.1
2026-03-23T04:20	-44.01458	-33.21194	11.474	257.9
2026-03-23T04:30	-44.02115	-33.25444	11.284	257.9
2026-03-23T04:40	-44.02722	-33.29764	11.426	259.0
2026-03-23T04:50	-44.03324	-33.34067	11.377	259.0
2026-03-23T05:00	-44.03938	-33.38346	11.323	258.7
2026-03-23T05:10	-44.04543	-33.42550	11.126	258.7
2026-03-23T05:20	-44.05141	-33.46749	11.106	258.8
2026-03-23T05:30	-44.05734	-33.50945	11.095	258.9
2026-03-23T05:40	-44.06313	-33.55155	11.119	259.2
2026-03-23T05:50	-44.06906	-33.59376	11.156	259.0
2026-03-23T06:00	-44.07504	-33.63580	11.117	258.8
2026-03-23T06:10	-44.08096	-33.67808	11.170	259.0
2026-03-23T06:20	-44.08734	-33.72033	11.194	258.1
2026-03-23T06:30	-44.09383	-33.76251	11.185	257.9
2026-03-23T06:40	-44.09914	-33.79839	9.497	258.4
2026-03-23T06:50	-44.10546	-33.83733	10.349	257.3
2026-03-23T07:00	-44.11182	-33.87901	11.045	258.0
2026-03-23T07:10	-44.11795	-33.92078	11.050	258.5
2026-03-23T07:20	-44.12378	-33.96241	10.991	259.0
2026-03-23T07:30	-44.12984	-34.00453	11.130	258.7
2026-03-23T07:40	-44.13585	-34.04673	11.148	258.8
2026-03-23T07:50	-44.14184	-34.08945	11.276	258.9
2026-03-23T08:00	-44.14770	-34.13223	11.282	259.2
2026-03-23T08:10	-44.15331	-34.17443	11.117	259.5
2026-03-23T08:20	-44.15965	-34.21610	11.032	258.1
2026-03-23T08:30	-44.16589	-34.25703	10.835	258.0
2026-03-23T08:40	-44.17206	-34.29723	10.644	258.0
2026-03-23T08:50	-44.17829	-34.33803	10.799	258.0
2026-03-23T09:00	-44.18460	-34.37871	10.775	257.8
2026-03-23T09:10	-44.19077	-34.41964	10.827	258.1
2026-03-23T09:20	-44.19660	-34.46046	10.771	258.8
2026-03-23T09:30	-44.20225	-34.50162	10.846	259.2
2026-03-23T09:40	-44.20830	-34.54359	11.079	258.7
2026-03-23T09:50	-44.21422	-34.58594	11.165	259.0
2026-03-23T10:00	-44.22016	-34.62810	11.117	258.9
2026-03-23T10:10	-44.22598	-34.66979	10.987	259.0
2026-03-23T10:20	-44.23184	-34.71170	11.047	259.0
2026-03-23T10:30	-44.23823	-34.75376	11.121	258.0
2026-03-23T10:40	-44.24462	-34.79600	11.164	258.1
2026-03-23T10:50	-44.25108	-34.83816	11.148	257.9
2026-03-23T11:00	-44.25753	-34.88035	11.154	258.0
2026-03-23T11:10	-44.26378	-34.92213	11.036	258.2
2026-03-23T11:20	-44.27027	-34.96453	11.207	258.0
2026-03-23T11:30	-44.27679	-35.00726	11.293	258.0
2026-03-23T11:40	-44.28344	-35.05038	11.400	257.9
2026-03-23T11:50	-44.28993	-35.09302	11.265	258.0
2026-03-23T12:00	-44.29654	-35.13600	11.359	257.9
2026-03-23T12:10	-44.30287	-35.17827	11.155	258.2
2026-03-23T12:20	-44.30954	-35.22141	11.403	257.8
2026-03-23T12:30	-44.31611	-35.26475	11.444	258.1
2026-03-23T12:40	-44.32267	-35.30773	11.349	258.0
2026-03-23T12:50	-44.32921	-35.35060	11.320	258.0
2026-03-23T13:00	-44.33574	-35.39430	11.527	258.2
2026-03-23T13:10	-44.34183	-35.43859	11.646	259.1
2026-03-23T13:20	-44.34803	-35.48373	11.866	259.1
2026-03-23T13:30	-44.35395	-35.52823	11.684	259.5
2026-03-23T13:40	-44.36024	-35.57279	11.726	258.9
2026-03-23T13:50	-44.36656	-35.61787	11.855	258.9
2026-03-23T14:00	-44.37243	-35.66205	11.595	259.5
2026-03-23T14:10	-44.37853	-35.70577	11.496	259.0
2026-03-23T14:20	-44.38450	-35.74868	11.278	259.0
2026-03-23T14:30	-44.39027	-35.79104	11.125	259.2
2026-03-23T14:40	-44.39627	-35.83413	11.322	259.0
2026-03-23T14:50	-44.40216	-35.87655	11.147	259.0
2026-03-23T15:00	-44.40796	-35.91865	11.058	259.1
2026-03-23T15:10	-44.41388	-35.96039	10.974	258.8
2026-03-23T15:20	-44.41983	-36.00253	11.076	258.8
2026-03-23T15:30	-44.42566	-36.04529	11.223	259.2
2026-03-23T15:40	-44.43144	-36.08765	11.119	259.2
2026-03-23T15:50	-44.43733	-36.13045	11.234	259.1
2026-03-23T16:00	-44.44347	-36.17337	11.282	258.7
2026-03-23T16:10	-44.44939	-36.21546	11.055	258.9
2026-03-23T16:20	-44.45487	-36.25764	11.048	259.7
2026-03-23T16:30	-44.46098	-36.29927	10.953	258.4
2026-03-23T16:40	-44.46736	-36.34127	11.063	258.0
2026-03-23T16:50	-44.47381	-36.38331	11.077	257.9
2026-03-23T17:00	-44.48021	-36.42509	11.006	257.9
2026-03-23T17:10	-44.48691	-36.46640	10.911	257.2
2026-03-23T17:20	-44.49373	-36.50747	10.859	256.9
2026-03-23T17:30	-44.50069	-36.54958	11.130	257.0
2026-03-23T17:40	-44.50656	-36.59172	11.054	259.0
2026-03-23T17:50	-44.51236	-36.63343	10.943	259.0
2026-03-23T18:00	-44.51832	-36.67571	11.093	258.8
2026-03-23T18:10	-44.52416	-36.71791	11.066	259.0
2026-03-23T18:20	-44.53046	-36.75959	10.964	258.1
2026-03-23T18:30	-44.53675	-36.80126	10.960	258.1
2026-03-23T18:40	-44.54282	-36.84190	10.684	258.2
2026-03-23T18:50	-44.54882	-36.88171	10.470	258.1
2026-03-23T19:00	-44.55456	-36.92262	10.724	258.9
2026-03-23T19:10	-44.56013	-36.96260	10.480	259.0
2026-03-23T19:20	-44.56570	-37.00227	10.400	258.9
2026-03-23T19:30	-44.57123	-37.04242	10.518	259.1
2026-03-23T19:40	-44.57672	-37.08181	10.319	258.9
2026-03-23T19:50	-44.58241	-37.12017	10.077	258.2
2026-03-23T20:00	-44.58836	-37.15893	10.192	257.9
2026-03-23T20:10	-44.59429	-37.19775	10.207	257.9
2026-03-23T20:20	-44.59990	-37.23596	10.029	258.4
2026-03-23T20:30	-44.60555	-37.27323	9.796	258.0
2026-03-23T20:40	-44.61138	-37.31112	9.963	257.8
2026-03-23T20:50	-44.61694	-37.34820	9.735	258.1
2026-03-23T21:00	-44.62252	-37.38557	9.813	258.2
2026-03-23T21:10	-44.62767	-37.42249	9.665	258.9
2026-03-23T21:20	-44.63293	-37.46023	9.880	259.0
2026-03-23T21:30	-44.63802	-37.49690	9.598	259.0
2026-03-23T21:40	-44.64310	-37.53396	9.695	259.1
2026-03-23T21:50	-44.64808	-37.57027	9.499	259.1
2026-03-23T22:00	-44.65305	-37.60625	9.411	259.0
2026-03-23T22:10	-44.65800	-37.64160	9.254	258.9
2026-03-23T22:20	-44.66297	-37.67719	9.311	258.9
2026-03-23T22:30	-44.66793	-37.71271	9.297	258.9
2026-03-23T22:40	-44.67290	-37.74858	9.381	259.0
2026-03-23T22:50	-44.67768	-37.78361	9.158	259.1
2026-03-23T23:00	-44.68264	-37.81932	9.339	259.0
2026-03-23T23:10	-44.68796	-37.85477	9.300	258.1
2026-03-23T23:20	-44.69320	-37.88970	9.160	258.1
2026-03-23T23:30	-44.69852	-37.92431	9.088	257.8
2026-03-23T23:40	-44.70394	-37.96021	9.416	258.0
2026-03-23T23:50	-44.70943	-37.99590	9.370	257.8
2026-03-24T00:00	-44.71443	-38.03192	9.416	259.0
2026-03-24T00:10	-44.71939	-38.06805	9.438	259.1
2026-03-24T00:20	-44.72444	-38.10414	9.436	258.9
2026-03-24T00:30	-44.72971	-38.14169	9.817	258.8
2026-03-24T00:40	-44.73484	-38.17887	9.714	259.0
2026-03-24T00:50	-44.73996	-38.21545	9.560	258.9
2026-03-24T01:00	-44.74543	-38.25299	9.826	258.4
2026-03-24T01:10	-44.75115	-38.29075	9.900	258.0
2026-03-24T01:20	-44.75688	-38.32782	9.726	257.8
2026-03-24T01:30	-44.76247	-38.36503	9.748	258.1
2026-03-24T01:40	-44.76799	-38.40134	9.518	257.9
2026-03-24T01:50	-44.77381	-38.44022	10.184	258.1
2026-03-24T02:00	-44.77954	-38.47852	10.030	258.1
2026-03-24T02:10	-44.78539	-38.51676	10.022	257.9
2026-03-24T02:20	-44.79106	-38.55475	9.948	258.1
2026-03-24T02:30	-44.79698	-38.59318	10.073	257.8
2026-03-24T02:40	-44.80260	-38.63053	9.779	258.1
2026-03-24T02:50	-44.80862	-38.66925	10.154	257.7
2026-03-24T03:00	-44.81434	-38.70885	10.350	258.5
2026-03-24T03:10	-44.81976	-38.74777	10.155	258.9
2026-03-24T03:20	-44.82517	-38.78582	9.939	258.7
2026-03-24T03:30	-44.83039	-38.82351	9.831	259.0
2026-03-24T03:40	-44.83562	-38.86200	10.035	259.2
2026-03-24T03:50	-44.84099	-38.90070	10.095	258.9
2026-03-24T04:00	-44.84643	-38.93949	10.120	258.8
2026-03-24T04:10	-44.85187	-38.97848	10.171	258.9
2026-03-24T04:20	-44.85705	-39.01625	9.846	259.1
2026-03-24T04:30	-44.86245	-39.05406	9.870	258.6
2026-03-24T04:40	-44.86752	-39.09074	9.561	259.0
2026-03-24T04:50	-44.87272	-39.12898	9.964	259.2
2026-03-24T05:00	-44.87809	-39.16692	9.897	258.7
2026-03-24T05:10	-44.88319	-39.20396	9.653	259.0
2026-03-24T05:20	-44.88837	-39.24184	9.867	259.1
2026-03-24T05:30	-44.89361	-39.27931	9.767	258.9
2026-03-24T05:40	-44.89880	-39.31659	9.718	258.9
2026-03-24T05:50	-44.90405	-39.35418	9.796	258.9
2026-03-24T06:00	-44.90945	-39.39340	10.216	259.0
2026-03-24T06:10	-44.91516	-39.43176	10.020	258.1
2026-03-24T06:20	-44.92095	-39.47018	10.042	258.0
2026-03-24T06:30	-44.92691	-39.50949	10.276	257.9
2026-03-24T06:40	-44.93292	-39.54966	10.493	258.1
2026-03-24T06:50	-44.93870	-39.58919	10.316	258.4
2026-03-24T07:00	-44.94428	-39.62813	10.151	258.6
2026-03-24T07:10	-44.94981	-39.66641	9.983	258.5
2026-03-24T07:20	-44.95538	-39.70519	10.109	258.6
2026-03-24T07:30	-44.96106	-39.74477	10.319	258.6
2026-03-24T07:40	-44.96676	-39.78429	10.301	258.5
2026-03-24T07:50	-44.97233	-39.82320	10.140	258.6
2026-03-24T08:00	-44.97804	-39.86281	10.324	258.5
2026-03-24T08:10	-44.98374	-39.90237	10.307	258.5
2026-03-24T08:20	-44.98944	-39.94220	10.377	258.6
2026-03-24T08:30	-44.99494	-39.98101	10.105	258.7
2026-03-24T08:40	-45.00035	-40.02049	10.266	259.1
2026-03-24T08:50	-45.00575	-40.05988	10.242	259.1
2026-03-24T09:00	-45.01102	-40.09874	10.099	259.2
2026-03-24T09:10	-45.01666	-40.13863	10.382	258.7
2026-03-24T09:20	-45.02205	-40.17842	10.340	259.2
2026-03-24T09:30	-45.02755	-40.21797	10.285	258.9
2026-03-24T09:40	-45.03314	-40.25820	10.461	258.9
2026-03-24T09:50	-45.03857	-40.29793	10.324	259.1
2026-03-24T10:00	-45.04402	-40.33714	10.194	258.9
2026-03-24T10:10	-45.04949	-40.37651	10.235	258.9
2026-03-24T10:20	-45.05469	-40.41456	9.884	259.1
2026-03-24T10:30	-45.06028	-40.45422	10.312	258.8
2026-03-24T10:40	-45.06551	-40.49305	10.081	259.2
2026-03-24T10:50	-45.07088	-40.53250	10.243	259.1
2026-03-24T11:00	-45.07634	-40.57258	10.408	259.1
2026-03-24T11:10	-45.08185	-40.61192	10.223	258.8
2026-03-24T11:20	-45.08722	-40.65067	10.067	258.9
2026-03-24T11:30	-45.09273	-40.69071	10.394	259.0
2026-03-24T11:40	-45.09828	-40.73098	10.458	259.0
2026-03-24T11:50	-45.10381	-40.77118	10.437	259.0
2026-03-24T12:00	-45.10918	-40.81082	10.284	259.1
2026-03-24T12:10	-45.11470	-40.85056	10.320	258.9
2026-03-24T12:20	-45.12020	-40.89018	10.286	258.9
2026-03-24T12:30	-45.12566	-40.92973	10.266	258.9
2026-03-24T12:40	-45.13118	-40.97008	10.470	259.0
2026-03-24T12:50	-45.13675	-41.01085	10.576	259.1
2026-03-24T13:00	-45.14240	-41.05165	10.588	258.9
2026-03-24T13:10	-45.14805	-41.09293	10.708	259.1
2026-03-24T13:20	-45.15365	-41.13382	10.605	259.0
2026-03-24T13:30	-45.15930	-41.17466	10.594	258.9
2026-03-24T13:40	-45.16501	-41.21597	10.717	258.9
2026-03-24T13:50	-45.17041	-41.25614	10.410	259.2
2026-03-24T14:00	-45.17629	-41.29818	10.908	258.8
2026-03-24T14:10	-45.18201	-41.33994	10.824	259.0
2026-03-24T14:20	-45.18769	-41.38202	10.903	259.2
2026-03-24T14:30	-45.19362	-41.42413	10.926	258.7
2026-03-24T14:40	-45.19945	-41.46743	11.214	259.2
2026-03-24T14:50	-45.20556	-41.51079	11.248	258.7
2026-03-24T15:00	-45.21133	-41.55311	10.964	259.1
2026-03-24T15:10	-45.21717	-41.59600	11.110	259.1
2026-03-24T15:20	-45.22320	-41.63976	11.339	259.0
2026-03-24T15:30	-45.22908	-41.68290	11.173	259.1
2026-03-24T15:40	-45.23516	-41.72742	11.529	259.0
2026-03-24T15:50	-45.24129	-41.77173	11.479	258.9
2026-03-24T16:00	-45.24735	-41.81582	11.420	259.0
2026-03-24T16:10	-45.25344	-41.86006	11.457	258.9
2026-03-24T16:20	-45.25961	-41.90411	11.414	258.8
2026-03-24T16:30	-45.26577	-41.94908	11.642	259.0
2026-03-24T16:40	-45.27175	-41.99360	11.515	259.2
2026-03-24T16:50	-45.27788	-42.03754	11.379	258.8
2026-03-24T17:00	-45.28393	-42.08143	11.362	258.9
2026-03-24T17:10	-45.28956	-42.12592	11.481	259.8
2026-03-24T17:20	-45.29513	-42.17006	11.391	259.8
2026-03-24T17:30	-45.30114	-42.21419	11.416	259.1
2026-03-24T17:40	-45.30722	-42.25832	11.417	258.9
2026-03-24T17:50	-45.31330	-42.30232	11.384	258.9
2026-03-24T18:00	-45.31938	-42.34686	11.518	259.0
2026-03-24T18:10	-45.32553	-42.39178	11.618	259.0
2026-03-24T18:20	-45.33167	-42.43665	11.602	259.0
2026-03-24T18:30	-45.33774	-42.48131	11.543	259.1
2026-03-24T18:40	-45.34385	-42.52616	11.593	259.1
2026-03-24T18:50	-45.34992	-42.57037	11.428	259.0
2026-03-24T19:00	-45.35607	-42.61441	11.392	258.8
2026-03-24T19:10	-45.36224	-42.65934	11.614	259.0
2026-03-24T19:20	-45.36814	-42.70394	11.513	259.4
2026-03-24T19:30	-45.37423	-42.74838	11.482	259.0
2026-03-24T19:40	-45.38033	-42.79301	11.530	259.0
2026-03-24T19:50	-45.38635	-42.83700	11.365	259.0
2026-03-24T20:00	-45.39238	-42.88131	11.442	259.1
2026-03-24T20:10	-45.39853	-42.92616	11.585	259.0
2026-03-24T20:20	-45.40459	-42.97045	11.438	259.0
2026-03-24T20:30	-45.41073	-43.01535	11.594	259.0
2026-03-24T20:40	-45.41684	-43.06039	11.627	259.1
2026-03-24T20:50	-45.42293	-43.10551	11.641	259.1
2026-03-24T21:00	-45.42916	-43.15101	11.746	259.0
2026-03-24T21:10	-45.43526	-43.19595	11.598	259.1
2026-03-24T21:20	-45.44147	-43.24050	11.505	258.8
2026-03-24T21:30	-45.44759	-43.28511	11.511	258.9
2026-03-24T21:40	-45.45363	-43.32950	11.454	259.0
2026-03-24T21:50	-45.45955	-43.37379	11.416	259.2
2026-03-24T22:00	-45.46570	-43.41843	11.520	258.9
2026-03-24T22:10	-45.47178	-43.46287	11.465	259.0
2026-03-24T22:20	-45.47783	-43.50721	11.434	259.0
2026-03-24T22:30	-45.48398	-43.55172	11.484	258.9
2026-03-24T22:40	-45.49001	-43.59591	11.394	259.0
2026-03-24T22:50	-45.49596	-43.63965	11.277	259.0
2026-03-24T23:00	-45.50195	-43.68370	11.353	259.0
2026-03-24T23:10	-45.50800	-43.72767	11.337	258.9
2026-03-24T23:20	-45.51401	-43.77206	11.438	259.1
2026-03-24T23:30	-45.52019	-43.81682	11.542	258.9
2026-03-24T23:40	-45.52622	-43.86148	11.504	259.1
2026-03-24T23:50	-45.53224	-43.90587	11.434	259.1
2026-03-25T00:00	-45.53824	-43.94967	11.286	258.9
2026-03-25T00:10	-45.54431	-43.99370	11.348	258.9
2026-03-25T00:20	-45.55028	-44.03761	11.310	259.0
2026-03-25T00:30	-45.55629	-44.08181	11.381	259.0
2026-03-25T00:40	-45.56238	-44.12577	11.328	258.8
2026-03-25T00:50	-45.56825	-44.16908	11.151	259.1
2026-03-25T01:00	-45.57415	-44.21224	11.113	259.0
2026-03-25T01:10	-45.58017	-44.25614	11.304	258.9
2026-03-25T01:20	-45.58612	-44.29988	11.260	259.0
2026-03-25T01:30	-45.59184	-44.34264	10.998	259.2
2026-03-25T01:40	-45.59767	-44.38518	10.951	258.9
2026-03-25T01:50	-45.60348	-44.42768	10.938	259.0
2026-03-25T02:00	-45.60921	-44.47022	10.943	259.1
2026-03-25T02:10	-45.61496	-44.51267	10.917	259.1
2026-03-25T02:20	-45.62074	-44.55490	10.866	259.0
2026-03-25T02:30	-45.62651	-44.59739	10.928	259.0
2026-03-25T02:40	-45.63235	-44.64010	10.988	258.9
2026-03-25T02:50	-45.63822	-44.68321	11.088	259.0
2026-03-25T03:00	-45.64412	-44.72680	11.205	259.1
2026-03-25T03:10	-45.65010	-44.77040	11.216	258.9
2026-03-25T03:20	-45.65606	-44.81436	11.298	259.1
2026-03-25T03:30	-45.66198	-44.85800	11.218	259.0
2026-03-25T03:40	-45.66803	-44.90218	11.360	258.9
2026-03-25T03:50	-45.67411	-44.94666	11.433	258.9
2026-03-25T04:00	-45.68009	-44.99121	11.444	259.1
2026-03-25T04:10	-45.68622	-45.03589	11.483	258.9
2026-03-25T04:20	-45.69226	-45.08072	11.514	259.1
2026-03-25T04:30	-45.69841	-45.12605	11.645	259.0
2026-03-25T04:40	-45.70459	-45.17116	11.589	258.9
2026-03-25T04:50	-45.71068	-45.21612	11.547	259.0
2026-03-25T05:00	-45.71683	-45.26109	11.551	258.9
2026-03-25T05:10	-45.72295	-45.30583	11.491	258.9
2026-03-25T05:20	-45.72903	-45.35068	11.516	259.0
2026-03-25T05:30	-45.73526	-45.39573	11.573	258.8
2026-03-25T05:40	-45.74129	-45.44070	11.538	259.1
2026-03-25T05:50	-45.74737	-45.48502	11.380	258.9
2026-03-25T06:00	-45.75338	-45.52976	11.479	259.1
2026-03-25T06:10	-45.75894	-45.57432	11.403	259.9
2026-03-25T06:20	-45.76510	-45.61973	11.651	259.0
2026-03-25T06:30	-45.77125	-45.66490	11.590	259.0
2026-03-25T06:40	-45.77732	-45.70970	11.490	259.0
2026-03-25T06:50	-45.78334	-45.75416	11.405	259.0
2026-03-25T07:00	-45.78935	-45.79837	11.340	259.0
2026-03-25T07:10	-45.79530	-45.84220	11.242	259.0
2026-03-25T07:20	-45.80127	-45.88624	11.291	259.0
2026-03-25T07:30	-45.80728	-45.93062	11.378	259.0
2026-03-25T07:40	-45.81337	-45.97560	11.532	259.0
2026-03-25T07:50	-45.81953	-46.02093	11.620	259.0
2026-03-25T08:00	-45.82567	-46.06650	11.676	259.1
2026-03-25T08:10	-45.83174	-46.11126	11.472	259.0
2026-03-25T08:20	-45.83774	-46.15543	11.321	259.0
2026-03-25T08:30	-45.84369	-46.19933	11.249	259.0
2026-03-25T08:40	-45.84962	-46.24314	11.222	259.0
2026-03-25T08:50	-45.85548	-46.28640	11.082	259.0
2026-03-25T09:00	-45.86125	-46.32900	10.912	259.0
2026-03-25T09:10	-45.86695	-46.37087	10.728	259.0
2026-03-25T09:20	-45.87261	-46.41284	10.745	259.1
2026-03-25T09:30	-45.87818	-46.45412	10.569	259.0
2026-03-25T09:40	-45.88320	-46.49482	10.389	260.0
2026-03-25T09:50	-45.88877	-46.53605	10.554	259.1
2026-03-25T10:00	-45.89449	-46.57821	10.795	259.0
2026-03-25T10:10	-45.90022	-46.62011	10.730	258.9
2026-03-25T10:20	-45.90568	-46.66000	10.214	258.9
2026-03-25T10:30	-45.91122	-46.70144	10.599	259.1
2026-03-25T10:40	-45.91674	-46.74238	10.475	259.1
2026-03-25T10:50	-45.92223	-46.78356	10.532	259.2
2026-03-25T11:00	-45.92771	-46.82406	10.361	259.0
2026-03-25T11:10	-45.93333	-46.86461	10.384	258.8
2026-03-25T11:20	-45.93885	-46.90506	10.348	258.9
2026-03-25T11:30	-45.94441	-46.94588	10.443	258.9
2026-03-25T11:40	-45.94987	-46.98732	10.590	259.3
2026-03-25T11:50	-45.95528	-47.02810	10.420	259.2
2026-03-25T12:00	-45.96081	-47.06961	10.607	259.2
2026-03-25T12:10	-45.96623	-47.11067	10.489	259.2
2026-03-25T12:20	-45.97207	-47.15263	10.738	258.7
2026-03-25T12:30	-45.97765	-47.19409	10.595	259.1
2026-03-25T12:40	-45.98312	-47.23537	10.544	259.2
2026-03-25T12:50	-45.98868	-47.27627	10.455	258.9
2026-03-25T13:00	-45.99428	-47.31728	10.483	258.9
2026-03-25T13:10	-46.00013	-47.35813	10.462	258.4
2026-03-25T13:20	-46.00546	-47.39890	10.405	259.4
2026-03-25T13:30	-46.01102	-47.43942	10.355	258.9
2026-03-25T13:40	-46.01644	-47.47944	10.224	259.0
2026-03-25T13:50	-46.02177	-47.51946	10.216	259.1
2026-03-25T14:00	-46.02547	-47.54692	7.013	259.1
2026-03-25T14:10	-46.03075	-47.58599	9.976	259.0
2026-03-25T14:20	-46.03596	-47.62431	9.787	258.9
2026-03-25T14:30	-46.04121	-47.66285	9.845	258.9
2026-03-25T14:40	-46.04627	-47.70104	9.744	259.2
2026-03-25T14:50	-46.05144	-47.73878	9.637	258.9
2026-03-25T15:00	-46.05652	-47.77594	9.490	258.9
2026-03-25T15:10	-46.06144	-47.81271	9.383	259.1
2026-03-25T15:20	-46.06624	-47.84953	9.384	259.4
2026-03-25T15:30	-46.07110	-47.88556	9.194	259.0
2026-03-25T15:40	-46.07603	-47.92181	9.251	258.9
2026-03-25T15:50	-46.08098	-47.95844	9.347	259.0
2026-03-25T16:00	-46.08566	-47.99345	8.930	259.1
2026-03-25T16:10	-46.09038	-48.02789	8.790	258.8
2026-03-25T16:20	-46.09510	-48.06295	8.942	259.1
2026-03-25T16:30	-46.09962	-48.09647	8.550	259.0
2026-03-25T16:40	-46.10432	-48.13139	8.905	259.0
2026-03-25T16:50	-46.10875	-48.16409	8.340	259.0
2026-03-25T17:00	-46.11331	-48.19815	8.681	259.1
2026-03-25T17:10	-46.11776	-48.23139	8.475	259.1
2026-03-25T17:20	-46.12214	-48.26395	8.298	259.0
2026-03-25T17:30	-46.12668	-48.29761	8.581	259.0
2026-03-25T17:40	-46.13114	-48.33084	8.470	259.1
2026-03-25T17:50	-46.13551	-48.36333	8.281	259.1
2026-03-25T18:00	-46.13987	-48.39563	8.231	259.0
2026-03-25T18:10	-46.14422	-48.42777	8.194	259.0
2026-03-25T18:20	-46.14891	-48.45880	7.943	257.7
2026-03-25T18:30	-46.15334	-48.49025	8.026	258.5
2026-03-25T18:40	-46.15823	-48.52443	8.728	258.4
2026-03-25T18:50	-46.16271	-48.55687	8.274	258.7
2026-03-25T19:00	-46.16709	-48.58984	8.393	259.2
2026-03-25T19:10	-46.17157	-48.62335	8.533	259.1
2026-03-25T19:20	-46.17603	-48.65697	8.559	259.2
2026-03-25T19:30	-46.18071	-48.69070	8.599	258.7
2026-03-25T19:40	-46.18541	-48.72453	8.625	258.7
2026-03-25T19:50	-46.18968	-48.75727	8.328	259.3
2026-03-25T20:00	-46.19364	-48.78555	7.211	258.6
2026-03-25T20:10	-46.19727	-48.81248	6.856	259.0
2026-03-25T20:20	-46.20096	-48.84051	7.130	259.2
2026-03-25T20:30	-46.20519	-48.86872	7.214	257.8
2026-03-25T20:40	-46.20940	-48.89618	7.026	257.6
2026-03-25T20:50	-46.21323	-48.92450	7.208	259.0
2026-03-25T21:00	-46.21692	-48.95017	6.550	258.3
2026-03-25T21:10	-46.22055	-48.97750	6.953	259.1
2026-03-25T21:20	-46.22355	-49.00338	6.554	260.5
2026-03-25T21:30	-46.22651	-49.02801	6.244	260.2
2026-03-25T21:40	-46.22988	-49.05324	6.420	259.1
2026-03-25T21:50	-46.23286	-49.07767	6.195	260.0
2026-03-25T22:00	-46.23533	-49.10034	5.733	261.1
2026-03-25T22:10	-46.23813	-49.12354	5.881	260.1
2026-03-25T22:20	-46.24184	-49.14635	5.849	256.8
2026-03-25T22:30	-46.24483	-49.17123	6.305	260.2
2026-03-25T22:40	-46.24840	-49.19576	6.260	258.1
2026-03-25T22:50	-46.25184	-49.22010	6.203	258.5
2026-03-25T23:00	-46.25534	-49.24507	6.361	258.6
2026-03-25T23:10	-46.25915	-49.27123	6.674	258.1
2026-03-25T23:20	-46.26236	-49.29604	6.298	259.4
2026-03-25T23:30	-46.26516	-49.30365	2.151	242.0
2026-03-25T23:40	-46.26575	-49.31579	3.038	266.1
2026-03-25T23:50	-46.26802	-49.33675	5.297	261.1
2026-03-26T00:00	-46.27081	-49.36071	6.064	260.5
2026-03-26T00:10	-46.27381	-49.38347	5.781	259.2
2026-03-26T00:20	-46.27711	-49.40437	5.349	257.2
2026-03-26T00:30	-46.27984	-49.42614	5.520	259.7
2026-03-26T00:40	-46.28272	-49.44689	5.282	258.7
2026-03-26T00:50	-46.28543	-49.47168	6.263	261.0
2026-03-26T01:00	-46.28850	-49.49501	5.926	259.2
2026-03-26T01:10	-46.29216	-49.51902	6.133	257.6
2026-03-26T01:20	-46.29519	-49.54415	6.364	260.1
2026-03-26T01:30	-46.29842	-49.56860	6.209	259.2
2026-03-26T01:40	-46.30185	-49.59337	6.302	258.7
2026-03-26T01:50	-46.30515	-49.61822	6.312	259.1
2026-03-26T02:00	-46.30792	-49.64123	5.824	260.1
2026-03-26T02:10	-46.31109	-49.66423	5.850	258.7
2026-03-26T02:20	-46.31423	-49.68725	5.852	258.9
2026-03-26T02:30	-46.31754	-49.71099	6.039	258.6
2026-03-26T02:40	-46.32028	-49.73331	5.654	259.9
2026-03-26T02:50	-46.32294	-49.75518	5.536	260.0
2026-03-26T03:00	-46.32594	-49.77716	5.586	258.8
2026-03-26T03:10	-46.32891	-49.79948	5.669	259.1
2026-03-26T03:20	-46.33131	-49.82080	5.384	260.7
2026-03-26T03:30	-46.33419	-49.84031	4.974	258.0
2026-03-26T03:40	-46.33734	-49.86070	5.207	257.4
2026-03-26T03:50	-46.34122	-49.88450	6.096	256.7
2026-03-26T04:00	-46.34434	-49.90552	5.358	257.9
2026-03-26T04:10	-46.34727	-49.92652	5.339	258.6
2026-03-26T04:20	-46.35006	-49.94861	5.597	259.7
2026-03-26T04:30	-46.35268	-49.96811	4.950	259.0
2026-03-26T04:40	-46.35555	-49.98913	5.340	258.8
2026-03-26T04:50	-46.35869	-50.01075	5.505	258.1
2026-03-26T05:00	-46.36174	-50.03057	5.061	257.5
2026-03-26T05:10	-46.36449	-50.04940	4.794	258.0
2026-03-26T05:20	-46.36718	-50.06837	4.825	258.4
2026-03-26T05:30	-46.37027	-50.08921	5.309	257.9
2026-03-26T05:40	-46.37319	-50.10789	4.771	257.2
2026-03-26T05:50	-46.37601	-50.12702	4.873	258.0
2026-03-26T06:00	-46.37909	-50.14405	4.386	255.3
2026-03-26T06:10	-46.38119	-50.16054	4.175	259.5
2026-03-26T06:20	-46.38427	-50.17779	4.438	255.6
2026-03-26T06:30	-46.38726	-50.19719	4.950	257.4
2026-03-26T06:40	-46.39098	-50.21616	4.913	254.1
2026-03-26T06:50	-46.39407	-50.23351	4.461	255.6
2026-03-26T07:00	-46.39735	-50.25074	4.449	254.6
2026-03-26T07:10	-46.39945	-50.26909	4.631	260.6
2026-03-26T07:20	-46.40184	-50.28599	4.297	258.4
2026-03-26T07:30	-46.40466	-50.30370	4.524	257.1
2026-03-26T07:40	-46.40725	-50.32343	5.001	259.2
2026-03-26T07:50	-46.41004	-50.34350	5.096	258.6
2026-03-26T08:00	-46.41282	-50.36551	5.570	259.7
2026-03-26T08:10	-46.41583	-50.38659	5.357	258.3
2026-03-26T08:20	-46.41840	-50.40642	5.025	259.4
2026-03-26T08:30	-46.42141	-50.42718	5.279	258.2
2026-03-26T08:40	-46.42418	-50.44933	5.604	259.8
2026-03-26T08:50	-46.42714	-50.47105	5.508	258.9
2026-03-26T09:00	-46.42966	-50.49140	5.147	259.8
2026-03-26T09:10	-46.43223	-50.51147	5.081	259.5
2026-03-26T09:20	-46.43518	-50.53303	5.468	258.8
2026-03-26T09:30	-46.43815	-50.55438	5.419	258.6
2026-03-26T09:40	-46.44108	-50.57701	5.730	259.4
2026-03-26T09:50	-46.44358	-50.59827	5.366	260.3
2026-03-26T10:00	-46.44621	-50.61812	5.027	259.1
2026-03-26T10:10	-46.44825	-50.63818	5.047	261.6
2026-03-26T10:20	-46.44978	-50.66000	5.456	264.2
2026-03-26T10:30	-46.45238	-50.68171	5.481	260.2
2026-03-26T10:40	-46.45457	-50.70395	5.589	261.9
2026-03-26T10:50	-46.45749	-50.72559	5.485	259.0
2026-03-26T11:00	-46.45943	-50.74648	5.243	262.3
2026-03-26T11:10	-46.46184	-50.76638	5.025	260.1
2026-03-26T11:20	-46.46491	-50.78903	5.740	258.9
2026-03-26T11:30	-46.46769	-50.81258	5.943	260.3
2026-03-26T11:40	-46.47085	-50.83592	5.914	258.9
2026-03-26T11:50	-46.47353	-50.85695	5.318	259.5
2026-03-26T12:00	-46.47580	-50.87622	4.863	260.3
2026-03-26T12:10	-46.47901	-50.89840	5.635	258.1
2026-03-26T12:20	-46.48210	-50.92107	5.746	258.9
2026-03-26T12:30	-46.48537	-50.94391	5.799	258.3
2026-03-26T12:40	-46.48828	-50.96561	5.496	259.0
2026-03-26T12:50	-46.49100	-50.98744	5.514	259.8
2026-03-26T13:00	-46.49406	-51.01027	5.782	259.0
2026-03-26T13:10	-46.49720	-51.03319	5.808	258.8
2026-03-26T13:20	-46.50014	-51.05483	5.481	258.9
2026-03-26T13:30	-46.50318	-51.07911	6.133	259.7
2026-03-26T13:40	-46.50658	-51.10308	6.081	258.4
2026-03-26T13:50	-46.50966	-51.12805	6.305	259.9
2026-03-26T14:00	-46.51311	-51.15383	6.525	259.0
2026-03-26T14:10	-46.51673	-51.18058	6.774	258.9
2026-03-26T14:20	-46.52005	-51.20521	6.235	258.9
2026-03-26T14:30	-46.52333	-51.22984	6.233	259.1
2026-03-26T14:40	-46.52718	-51.25777	7.074	258.7
2026-03-26T14:50	-46.53078	-51.28745	7.488	260.0
2026-03-26T15:00	-46.53442	-51.31471	6.897	259.1
2026-03-26T15:10	-46.53795	-51.34184	6.857	259.3
2026-03-26T15:20	-46.54183	-51.36945	6.998	258.5
2026-03-26T15:30	-46.54558	-51.39858	7.360	259.4
2026-03-26T15:40	-46.54937	-51.42655	7.078	258.9
2026-03-26T15:50	-46.55325	-51.45450	7.080	258.6
2026-03-26T16:00	-46.55689	-51.48286	7.162	259.4
2026-03-26T16:10	-46.56064	-51.51020	6.922	258.7
2026-03-26T16:20	-46.56446	-51.53952	7.408	259.3
2026-03-26T16:30	-46.56805	-51.56897	7.425	260.0
2026-03-26T16:40	-46.57201	-51.59766	7.262	258.7
2026-03-26T16:50	-46.57613	-51.62746	7.544	258.6
2026-03-26T17:00	-46.58011	-51.65691	7.449	258.9
2026-03-26T17:10	-46.58400	-51.68680	7.550	259.3
2026-03-26T17:20	-46.58808	-51.71701	7.639	258.9
2026-03-26T17:30	-46.59183	-51.74526	7.140	259.1
2026-03-26T17:40	-46.59565	-51.77392	7.242	259.1
2026-03-26T17:50	-46.59960	-51.80332	7.432	259.0
2026-03-26T18:00	-46.60347	-51.83177	7.195	258.8
2026-03-26T18:10	-46.60741	-51.86089	7.361	258.9
2026-03-26T18:20	-46.61103	-51.88911	7.120	259.4
2026-03-26T18:30	-46.61530	-51.91947	7.686	258.4
2026-03-26T18:40	-46.61951	-51.95024	7.781	258.8
2026-03-26T18:50	-46.62365	-51.98210	8.040	259.3
2026-03-26T19:00	-46.62837	-52.01666	8.736	258.8
2026-03-26T19:10	-46.63272	-52.04901	8.174	258.9
2026-03-26T19:20	-46.63709	-52.08199	8.327	259.1
2026-03-26T19:30	-46.64631	-52.11274	8.316	246.5
2026-03-26T19:40	-46.65742	-52.14305	8.510	242.0
2026-03-26T19:50	-46.66786	-52.17162	8.016	242.0
2026-03-26T20:00	-46.67903	-52.20237	8.615	242.2
2026-03-26T20:10	-46.69013	-52.23191	8.337	241.4
2026-03-26T20:20	-46.70061	-52.26079	8.086	242.2
2026-03-26T20:30	-46.71176	-52.29080	8.445	241.6
2026-03-26T20:40	-46.72282	-52.32142	8.563	242.3
2026-03-26T20:50	-46.73356	-52.35058	8.186	241.8
2026-03-26T21:00	-46.74443	-52.38108	8.503	242.6
2026-03-26T21:10	-46.75557	-52.41137	8.497	241.8
2026-03-26T21:20	-46.76650	-52.44069	8.253	241.5
2026-03-26T21:30	-46.77746	-52.47115	8.502	242.3
2026-03-26T21:40	-46.78861	-52.50044	8.283	241.0
2026-03-26T21:50	-46.79979	-52.53096	8.550	241.9
2026-03-26T22:00	-46.81089	-52.56156	8.554	242.1
2026-03-26T22:10	-46.82210	-52.59195	8.525	241.8
2026-03-26T22:20	-46.83369	-52.62205	8.527	240.7
2026-03-26T22:30	-46.84645	-52.64990	8.272	236.3
2026-03-26T22:40	-46.85936	-52.67742	8.233	235.6
2026-03-26T22:50	-46.87228	-52.70566	8.382	236.3
2026-03-26T23:00	-46.88537	-52.73391	8.414	235.9
2026-03-26T23:10	-46.89831	-52.76189	8.329	236.0
2026-03-26T23:20	-46.91142	-52.79009	8.407	235.8
2026-03-26T23:30	-46.92408	-52.81732	8.117	235.8
2026-03-26T23:40	-46.93664	-52.84419	8.020	235.7
2026-03-26T23:50	-46.94930	-52.87196	8.225	236.3
2026-03-27T00:00	-46.96235	-52.90010	8.376	235.9
2026-03-27T00:10	-46.97518	-52.92793	8.268	236.0
2026-03-27T00:20	-46.98813	-52.95614	8.369	236.1
2026-03-27T00:30	-47.00124	-52.98452	8.433	236.0
2026-03-27T00:40	-47.01416	-53.01276	8.367	236.2
2026-03-27T00:50	-47.02743	-53.04113	8.460	235.6
2026-03-27T01:00	-47.04081	-53.07092	8.773	236.7
2026-03-27T01:10	-47.05441	-53.10020	8.709	235.8
2026-03-27T01:20	-47.06849	-53.13041	8.996	235.7
2026-03-27T01:30	-47.08248	-53.16094	9.041	236.1
2026-03-27T01:40	-47.09644	-53.19097	8.931	235.8
2026-03-27T01:50	-47.11051	-53.22130	9.012	235.8
2026-03-27T02:00	-47.12450	-53.25148	8.966	235.8
2026-03-27T02:10	-47.13780	-53.28119	8.729	236.7
2026-03-27T02:20	-47.15208	-53.31235	9.218	236.1
2026-03-27T02:30	-47.16636	-53.34285	9.082	235.5
2026-03-27T02:40	-47.18052	-53.37353	9.093	235.9
2026-03-27T02:50	-47.19506	-53.40530	9.393	236.1
2026-03-27T03:00	-47.20981	-53.43770	9.558	236.2
2026-03-27T03:10	-47.22456	-53.46948	9.434	235.7
2026-03-27T03:20	-47.23891	-53.50066	9.227	235.9
2026-03-27T03:30	-47.25359	-53.53238	9.399	235.8
2026-03-27T03:40	-47.26874	-53.56542	9.764	236.0
2026-03-27T03:50	-47.28350	-53.59746	9.479	235.9
2026-03-27T04:00	-47.29847	-53.63018	9.658	236.1
2026-03-27T04:10	-47.31389	-53.66402	9.972	236.2
2026-03-27T04:20	-47.32890	-53.69733	9.782	236.4
2026-03-27T04:30	-47.34414	-53.73020	9.737	235.7
2026-03-27T04:40	-47.35976	-53.76423	10.046	236.0
2026-03-27T04:50	-47.37472	-53.79684	9.622	236.0
2026-03-27T05:00	-47.38989	-53.82973	9.722	235.8
2026-03-27T05:10	-47.40491	-53.86246	9.658	235.9
2026-03-27T05:20	-47.41965	-53.89513	9.585	236.4
2026-03-27T05:30	-47.43443	-53.92765	9.562	236.2
2026-03-27T05:40	-47.44972	-53.96112	9.856	236.0
2026-03-27T05:50	-47.46444	-53.99333	9.482	236.0
2026-03-27T06:00	-47.47986	-54.02701	9.921	236.0
2026-03-27T06:10	-47.49500	-54.06053	9.829	236.3
2026-03-27T06:20	-47.50981	-54.09286	9.520	235.9
2026-03-27T06:30	-47.52469	-54.12425	9.342	235.0
2026-03-27T06:40	-47.54010	-54.15686	9.696	235.1
2026-03-27T06:50	-47.55529	-54.18845	9.444	234.6
2026-03-27T07:00	-47.57072	-54.22093	9.669	234.9
2026-03-27T07:10	-47.58528	-54.25331	9.470	236.4
2026-03-27T07:20	-47.59948	-54.28466	9.190	236.2
2026-03-27T07:30	-47.61378	-54.31630	9.265	236.2
2026-03-27T07:40	-47.62800	-54.34771	9.201	236.2
2026-03-27T07:50	-47.64273	-54.38016	9.512	236.1
2026-03-27T08:00	-47.65772	-54.41332	9.705	236.2
2026-03-27T08:10	-47.67259	-54.44622	9.627	236.2
2026-03-27T08:20	-47.68734	-54.47887	9.550	236.2
2026-03-27T08:30	-47.70222	-54.51167	9.605	236.1
2026-03-27T08:40	-47.71713	-54.54484	9.684	236.3
2026-03-27T08:50	-47.73202	-54.57782	9.640	236.2
2026-03-27T09:00	-47.74694	-54.61029	9.541	235.7
2026-03-27T09:10	-47.76185	-54.64390	9.766	236.6
2026-03-27T09:20	-47.77703	-54.67742	9.802	236.1
2026-03-27T09:30	-47.79178	-54.71018	9.560	236.2
2026-03-27T09:40	-47.80710	-54.74416	9.918	236.2
2026-03-27T09:50	-47.82232	-54.77775	9.815	236.1
2026-03-27T10:00	-47.83731	-54.81202	9.909	237.0
2026-03-27T10:10	-47.85363	-54.84657	10.229	234.9
2026-03-27T10:20	-47.87041	-54.88182	10.462	234.7
2026-03-27T10:30	-47.88770	-54.91867	10.880	235.1
2026-03-27T10:40	-47.90440	-54.95359	10.377	234.6
2026-03-27T10:50	-47.92099	-54.98918	10.483	235.2
2026-03-27T11:00	-47.93792	-55.02491	10.576	234.8
2026-03-27T11:10	-47.95509	-55.06124	10.744	234.9
2026-03-27T11:20	-47.97205	-55.09752	10.689	235.2
2026-03-27T11:30	-47.98882	-55.13357	10.602	235.3
2026-03-27T11:40	-48.00533	-55.16864	10.351	234.9
2026-03-27T11:50	-48.02176	-55.20500	10.589	236.0
2026-03-27T12:00	-48.03831	-55.24174	10.687	236.1
2026-03-27T12:10	-48.05497	-55.27846	10.704	235.9
2026-03-27T12:20	-48.07178	-55.31580	10.855	236.1
2026-03-27T12:30	-48.08861	-55.35337	10.904	236.2
2026-03-27T12:40	-48.10574	-55.39100	10.974	235.8
2026-03-27T12:50	-48.12273	-55.42871	10.956	236.1
2026-03-27T13:00	-48.13988	-55.46656	11.017	235.9
2026-03-27T13:10	-48.15639	-55.50537	11.081	237.6
2026-03-27T13:20	-48.17241	-55.54390	10.927	238.1
2026-03-27T13:30	-48.18889	-55.58336	11.201	238.0
2026-03-27T13:40	-48.20508	-55.62211	10.999	238.0
2026-03-27T13:50	-48.22136	-55.66112	11.067	238.0
2026-03-27T14:00	-48.23769	-55.70035	11.119	238.1
2026-03-27T14:10	-48.25426	-55.74019	11.288	238.1
2026-03-27T14:20	-48.27086	-55.78010	11.303	238.1
2026-03-27T14:30	-48.28765	-55.82006	11.346	237.8
2026-03-27T14:40	-48.30419	-55.86017	11.330	238.3
2026-03-27T14:50	-48.32077	-55.89976	11.228	237.9
2026-03-27T15:00	-48.33720	-55.93958	11.243	238.2
2026-03-27T15:10	-48.35379	-55.97946	11.283	238.0
2026-03-27T15:20	-48.37048	-56.01958	11.348	238.0
2026-03-27T15:30	-48.38745	-56.06016	11.493	237.9
2026-03-27T15:40	-48.40334	-56.10152	11.449	240.0
2026-03-27T15:50	-48.41960	-56.14352	11.645	239.8
2026-03-27T16:00	-48.43577	-56.18525	11.573	239.8
2026-03-27T16:10	-48.45138	-56.22699	11.470	240.6
2026-03-27T16:20	-48.46698	-56.26756	11.223	240.0
2026-03-27T16:30	-48.48277	-56.30813	11.253	239.6
2026-03-27T16:40	-48.49827	-56.34897	11.256	240.2
2026-03-27T16:50	-48.51413	-56.38985	11.326	239.7
2026-03-27T17:00	-48.52983	-56.43112	11.376	240.2
2026-03-27T17:10	-48.54504	-56.47090	10.976	240.1
2026-03-27T17:20	-48.56093	-56.51216	11.400	239.9
2026-03-27T17:30	-48.57668	-56.55319	11.329	239.9
2026-03-27T17:40	-48.59192	-56.59327	11.035	240.2
2026-03-27T17:50	-48.60737	-56.63340	11.082	239.8
2026-03-27T18:00	-48.62263	-56.67430	11.205	240.6
2026-03-27T18:10	-48.63745	-56.71518	11.120	241.3
2026-03-27T18:20	-48.65200	-56.75615	11.091	241.8
2026-03-27T18:30	-48.66625	-56.79680	10.971	242.1
2026-03-27T18:40	-48.68091	-56.83825	11.206	241.9
2026-03-27T18:50	-48.69522	-56.87881	10.958	241.9
2026-03-27T19:00	-48.70945	-56.91944	10.955	242.1
2026-03-27T19:10	-48.72400	-56.96068	11.135	241.9
2026-03-27T19:20	-48.73883	-57.00178	11.153	241.4
2026-03-27T19:30	-48.75364	-57.04241	11.048	241.1
2026-03-27T19:40	-48.76826	-57.08234	10.866	241.0
2026-03-27T19:50	-48.78308	-57.12251	10.948	240.8
2026-03-27T20:00	-48.79790	-57.16118	10.636	239.9
2026-03-27T20:10	-48.81249	-57.19946	10.511	240.0
2026-03-27T20:20	-48.82684	-57.23791	10.502	240.5
2026-03-27T20:30	-48.84107	-57.27592	10.389	240.4
2026-03-27T20:40	-48.85526	-57.31384	10.360	240.4
2026-03-27T20:50	-48.86936	-57.35142	10.270	240.4
2026-03-27T21:00	-48.88348	-57.38931	10.336	240.5
2026-03-27T21:10	-48.89791	-57.42784	10.521	240.4
2026-03-27T21:20	-48.91205	-57.46567	10.324	240.4
2026-03-27T21:30	-48.92639	-57.50409	10.475	240.5
2026-03-27T21:40	-48.94092	-57.54300	10.612	240.4
2026-03-27T21:50	-48.95518	-57.58213	10.607	241.0
2026-03-27T22:00	-48.97012	-57.62167	10.808	240.1
2026-03-27T22:10	-48.98539	-57.66200	11.029	240.1
2026-03-27T22:20	-49.00070	-57.70235	11.036	240.0
2026-03-27T22:30	-49.01555	-57.74149	10.703	240.0
2026-03-27T22:40	-49.03062	-57.78102	10.823	239.9
2026-03-27T22:50	-49.04552	-57.82053	10.783	240.1
2026-03-27T23:00	-49.06043	-57.85976	10.726	239.9
2026-03-27T23:10	-49.07559	-57.89960	10.893	239.9
2026-03-27T23:20	-49.09089	-57.93991	11.011	240.0
2026-03-27T23:30	-49.10615	-57.98023	11.005	240.0
2026-03-27T23:40	-49.12134	-58.02023	10.922	239.9
2026-03-27T23:50	-49.13685	-58.06103	11.144	239.9
2026-03-28T00:00	-49.15233	-58.10169	11.106	239.8
2026-03-28T00:10	-49.16783	-58.14229	11.094	239.8
2026-03-28T00:20	-49.18329	-58.18328	11.166	240.1
2026-03-28T00:30	-49.19859	-58.22374	11.024	240.0
2026-03-28T00:40	-49.21424	-58.26487	11.223	239.8
2026-03-28T00:50	-49.22965	-58.30544	11.062	239.9
2026-03-28T01:00	-49.24519	-58.34669	11.220	240.1
2026-03-28T01:10	-49.26087	-58.38753	11.162	239.6
2026-03-28T01:20	-49.27601	-58.42747	10.877	239.9
2026-03-28T01:30	-49.29120	-58.46815	11.035	240.3
2026-03-28T01:40	-49.30642	-58.50872	11.015	240.2
2026-03-28T01:50	-49.32172	-58.54916	11.000	239.9
2026-03-28T02:00	-49.33696	-58.58949	10.964	240.0
2026-03-28T02:10	-49.35206	-58.62974	10.920	240.1
2026-03-28T02:20	-49.36701	-58.66951	10.795	240.1
2026-03-28T02:30	-49.38217	-58.70938	10.850	239.8
2026-03-28T02:40	-49.39709	-58.74914	10.781	240.1
2026-03-28T02:50	-49.41218	-58.78932	10.894	240.1
2026-03-28T03:00	-49.42739	-58.82976	10.966	240.0
2026-03-28T03:10	-49.44284	-58.87068	11.106	239.9
2026-03-28T03:20	-49.45789	-58.91166	11.042	240.6
2026-03-28T03:30	-49.47275	-58.95265	11.008	240.9
2026-03-28T03:40	-49.48758	-58.99403	11.082	241.2
2026-03-28T03:50	-49.50256	-59.03530	11.083	240.9
2026-03-28T04:00	-49.51759	-59.07684	11.144	240.9
2026-03-28T04:10	-49.53263	-59.11842	11.152	240.9
2026-03-28T04:20	-49.54775	-59.16048	11.260	241.1
2026-03-28T04:30	-49.56305	-59.20292	11.367	241.0
2026-03-28T04:40	-49.57828	-59.24530	11.342	241.1
2026-03-28T04:50	-49.59353	-59.28765	11.335	241.0
2026-03-28T05:00	-49.60752	-59.33062	11.250	243.4
2026-03-28T05:10	-49.61903	-59.37481	11.139	248.1
2026-03-28T05:20	-49.63056	-59.41894	11.129	248.1
2026-03-28T05:30	-49.64214	-59.46310	11.139	248.0
2026-03-28T05:40	-49.65411	-59.50826	11.405	247.8
2026-03-28T05:50	-49.66603	-59.55394	11.510	248.1
2026-03-28T06:00	-49.67809	-59.59956	11.513	247.8
2026-03-28T06:10	-49.69022	-59.64547	11.583	247.8
2026-03-28T06:20	-49.70208	-59.69105	11.473	248.1
2026-03-28T06:30	-49.71424	-59.73686	11.561	247.7
2026-03-28T06:40	-49.72633	-59.78309	11.640	248.0
2026-03-28T06:50	-49.73850	-59.83002	11.799	248.2
2026-03-28T07:00	-49.75083	-59.87698	11.824	247.9
2026-03-28T07:10	-49.76806	-59.92041	11.884	238.5
2026-03-28T07:20	-49.78684	-59.96343	12.098	236.0
2026-03-28T07:30	-49.80552	-60.00616	12.022	235.9
2026-03-28T07:40	-49.82422	-60.04913	12.068	236.1
2026-03-28T07:50	-49.84292	-60.09170	11.987	235.8
2026-03-28T08:00	-49.86161	-60.13451	12.030	236.0
2026-03-28T08:10	-49.88052	-60.17798	12.197	236.0
2026-03-28T08:20	-49.89960	-60.22157	12.250	235.9
2026-03-28T08:30	-49.91873	-60.26562	12.348	236.1
2026-03-28T08:40	-49.93794	-60.30925	12.277	235.7
2026-03-28T08:50	-49.95682	-60.35301	12.233	236.2
2026-03-28T09:00	-49.97580	-60.39632	12.166	235.8
2026-03-28T09:10	-49.99447	-60.43915	12.005	235.9
2026-03-28T09:20	-50.01326	-60.48241	12.108	236.0
2026-03-28T09:30	-50.03220	-60.52583	12.167	235.9
2026-03-28T09:40	-50.05121	-60.56985	12.295	236.1
2026-03-28T09:50	-50.07009	-60.61346	12.185	236.1
2026-03-28T10:00	-50.08912	-60.65696	12.190	235.8
2026-03-28T10:10	-50.10661	-60.70145	12.081	238.6
2026-03-28T10:20	-50.12307	-60.74649	11.997	240.4
2026-03-28T10:30	-50.13954	-60.79111	11.912	240.1
2026-03-28T10:40	-50.15601	-60.83529	11.820	239.9
2026-03-28T10:50	-50.17196	-60.87939	11.711	240.6
2026-03-28T11:00	-50.18774	-60.92345	11.668	240.8
2026-03-28T11:10	-50.20328	-60.96709	11.537	241.0
2026-03-28T11:20	-50.21895	-61.01106	11.627	240.9
2026-03-28T11:30	-50.23446	-61.05476	11.539	241.0
2026-03-28T11:40	-50.24972	-61.09778	11.355	241.1
2026-03-28T11:50	-50.26503	-61.14004	11.208	240.5
2026-03-28T12:00	-50.26728	-61.15299	3.099	254.8
2026-03-28T12:10	-50.26734	-61.16483	2.733	269.6
2026-03-28T12:20	-50.28285	-61.20396	10.619	238.2
2026-03-28T12:30	-50.29823	-61.24546	11.064	239.9
2026-03-28T12:40	-50.31374	-61.28718	11.128	239.9
2026-03-28T12:50	-50.32906	-61.32886	11.083	240.1
2026-03-28T13:00	-50.34430	-61.37026	11.009	240.1
2026-03-28T13:10	-50.36011	-61.41206	11.191	239.4
2026-03-28T13:20	-50.37595	-61.45325	11.072	239.0
2026-03-28T13:30	-50.39158	-61.49383	10.911	238.9
2026-03-28T13:40	-50.40716	-61.53420	10.856	238.9
2026-03-28T13:50	-50.42276	-61.57481	10.907	239.0
2026-03-28T14:00	-50.43782	-61.61564	10.848	240.0
2026-03-28T14:10	-50.45276	-61.65621	10.770	240.0
2026-03-28T14:20	-50.46781	-61.69676	10.785	239.8
2026-03-28T14:30	-50.48272	-61.73728	10.753	240.0
2026-03-28T14:40	-50.49752	-61.77760	10.688	240.1
2026-03-28T14:50	-50.51245	-61.81811	10.746	240.0
2026-03-28T15:00	-50.52735	-61.85855	10.727	240.0
2026-03-28T15:10	-50.54250	-61.89951	10.872	239.8
2026-03-28T15:20	-50.55735	-61.94010	10.741	240.1
2026-03-28T15:30	-50.57216	-61.98042	10.679	240.0
2026-03-28T15:40	-50.58702	-62.02102	10.740	240.1
2026-03-28T15:50	-50.60194	-62.06135	10.695	239.8
2026-03-28T16:00	-50.61682	-62.10203	10.755	240.1
2026-03-28T16:10	-50.63172	-62.14257	10.728	240.0
2026-03-28T16:20	-50.64691	-62.18388	10.929	239.9
2026-03-28T16:30	-50.66201	-62.22526	10.925	240.1
2026-03-28T16:40	-50.67727	-62.26691	11.006	240.0
2026-03-28T16:50	-50.69250	-62.30861	11.007	240.1
2026-03-28T17:00	-50.70796	-62.35059	11.102	239.9
2026-03-28T17:10	-50.72352	-62.39302	11.204	240.0
2026-03-28T17:20	-50.73892	-62.43512	11.109	240.0
2026-03-28T17:30	-50.75438	-62.47714	11.102	239.9
2026-03-28T17:40	-50.77005	-62.52005	11.312	240.1
2026-03-28T17:50	-50.78571	-62.56408	11.530	240.7
2026-03-28T18:00	-50.80085	-62.60885	11.585	241.9
2026-03-28T18:10	-50.81567	-62.65326	11.455	242.2
2026-03-28T18:20	-50.83080	-62.69800	11.573	241.9
2026-03-28T18:30	-50.84601	-62.74299	11.634	241.9
2026-03-28T18:40	-50.86120	-62.78800	11.630	241.9
2026-03-28T18:50	-50.87647	-62.83355	11.751	242.1
2026-03-28T19:00	-50.89189	-62.87904	11.758	241.8
2026-03-28T19:10	-50.90719	-62.92496	11.825	242.2
2026-03-28T19:20	-50.92285	-62.97117	11.938	241.8
2026-03-28T19:30	-50.93820	-63.01727	11.860	242.2
2026-03-28T19:40	-50.95367	-63.06350	11.905	242.1
2026-03-28T19:50	-50.96926	-63.10963	11.904	241.8
2026-03-28T20:00	-50.98475	-63.15558	11.846	241.9
2026-03-28T20:10	-51.00003	-63.20108	11.714	242.0
2026-03-28T20:20	-51.01525	-63.24671	11.731	242.1
2026-03-28T20:30	-51.02684	-63.28321	9.284	243.3
2026-03-28T20:40	-51.03755	-63.31435	8.058	241.4
2026-03-28T20:50	-51.04890	-63.34783	8.632	241.7
2026-03-28T21:00	-51.06011	-63.38132	8.612	242.0
2026-03-28T21:10	-51.07161	-63.41497	8.689	241.5
2026-03-28T21:20	-51.08291	-63.44860	8.649	241.9
2026-03-28T21:30	-51.09450	-63.48250	8.751	241.5
2026-03-28T21:40	-51.10572	-63.51591	8.587	241.9
2026-03-28T21:50	-51.11679	-63.54919	8.535	242.1
2026-03-28T22:00	-51.12765	-63.58182	8.368	242.1
2026-03-28T22:10	-51.13869	-63.61389	8.286	241.3
2026-03-28T22:20	-51.14957	-63.64617	8.300	241.8
2026-03-28T22:30	-51.16044	-63.67791	8.187	241.4
2026-03-28T22:40	-51.17125	-63.71005	8.255	241.8
2026-03-28T22:50	-51.18196	-63.74187	8.172	241.8
2026-03-28T23:00	-51.19245	-63.77297	7.989	241.8
2026-03-28T23:10	-51.20272	-63.80283	7.705	241.3
2026-03-28T23:20	-51.21287	-63.83293	7.732	241.7
2026-03-28T23:30	-51.22318	-63.86304	7.758	241.4
2026-03-28T23:40	-51.23302	-63.89153	7.354	241.2
2026-03-28T23:50	-51.24337	-63.92046	7.530	240.3
2026-03-29T00:00	-51.25307	-63.94958	7.451	242.0
2026-03-29T00:10	-51.26329	-63.97908	7.618	241.1
2026-03-29T00:20	-51.27328	-64.00767	7.397	240.9
2026-03-29T00:30	-51.28334	-64.03623	7.401	240.7
2026-03-29T00:40	-51.29375	-64.06467	7.438	239.7
2026-03-29T00:50	-51.30351	-64.09240	7.181	240.7
2026-03-29T01:00	-51.31348	-64.12036	7.263	240.4
2026-03-29T01:10	-51.32362	-64.14889	7.404	240.4
2026-03-29T01:20	-51.33348	-64.17614	7.102	240.0
2026-03-29T01:30	-51.34265	-64.20246	6.796	240.9
2026-03-29T01:40	-51.35214	-64.22925	6.946	240.5
2026-03-29T01:50	-51.36193	-64.25583	6.954	239.5
2026-03-29T02:00	-51.37139	-64.28262	6.936	240.6
2026-03-29T02:10	-51.38197	-64.30962	7.182	237.9
2026-03-29T02:20	-51.39202	-64.33715	7.184	239.7
2026-03-29T02:30	-51.40149	-64.36447	7.038	241.0
2026-03-29T02:40	-51.41160	-64.39223	7.240	239.8
2026-03-29T02:50	-51.42198	-64.41907	7.108	238.3
2026-03-29T03:00	-51.43265	-64.44668	7.310	238.3
2026-03-29T03:10	-51.44311	-64.47372	7.161	238.2
2026-03-29T03:20	-51.45321	-64.50102	7.141	239.4
2026-03-29T03:30	-51.46310	-64.52808	7.054	239.7
2026-03-29T03:40	-51.47255	-64.55464	6.880	240.3
2026-03-29T03:50	-51.48210	-64.58148	6.948	240.3
2026-03-29T04:00	-51.49136	-64.60916	7.065	241.8
2026-03-29T04:10	-51.50113	-64.63676	7.133	240.4
2026-03-29T04:20	-51.51091	-64.66515	7.291	241.1
2026-03-29T04:30	-51.52110	-64.69391	7.434	240.4
2026-03-29T04:40	-51.53071	-64.72306	7.408	242.2
2026-03-29T04:50	-51.53965	-64.74970	6.799	241.7
2026-03-29T05:00	-51.54757	-64.77516	6.391	243.5
2026-03-29T05:10	-51.55579	-64.80106	6.528	243.0
2026-03-29T05:20	-51.56400	-64.82811	6.754	244.0
2026-03-29T05:30	-51.57230	-64.85554	6.847	244.1
2026-03-29T05:40	-51.58087	-64.88386	7.068	244.1
2026-03-29T05:50	-51.58920	-64.91258	7.110	245.0
2026-03-29T06:00	-51.59779	-64.94036	6.958	243.6
2026-03-29T06:10	-51.60614	-64.97047	7.396	246.0
2026-03-29T06:20	-51.61455	-65.00143	7.575	246.4
2026-03-29T06:30	-51.62314	-65.03303	7.732	246.4
2026-03-29T06:40	-51.63196	-65.06500	7.842	246.1
2026-03-29T06:50	-51.64097	-65.09786	8.049	246.2
2026-03-29T07:00	-51.64981	-65.13042	7.964	246.4
2026-03-29T07:10	-51.65934	-65.16546	8.569	246.4
2026-03-29T07:20	-51.67011	-65.20474	9.616	246.2
2026-03-29T07:30	-51.68044	-65.24333	9.411	246.7
2026-03-29T07:40	-51.69068	-65.28159	9.329	246.7
2026-03-29T07:50	-51.70071	-65.31921	9.164	246.8
2026-03-29T08:00	-51.71091	-65.35694	9.210	246.5
2026-03-29T08:10	-51.72098	-65.39427	9.109	246.5
2026-03-29T08:20	-51.73112	-65.43210	9.217	246.6
2026-03-29T08:30	-51.74135	-65.46996	9.237	246.4
2026-03-29T08:40	-51.75182	-65.50829	9.366	246.2
2026-03-29T08:50	-51.76183	-65.54655	9.282	247.1
2026-03-29T09:00	-51.77160	-65.58505	9.298	247.7
2026-03-29T09:10	-51.78164	-65.62455	9.541	247.7
2026-03-29T09:20	-51.79162	-65.66442	9.608	248.0
2026-03-29T09:30	-51.80112	-65.70230	9.128	248.0
2026-03-29T09:40	-51.81078	-65.73998	9.105	247.5
2026-03-29T09:50	-51.82054	-65.77743	9.072	247.2
2026-03-29T10:00	-51.83014	-65.81457	8.983	247.3
2026-03-29T10:10	-51.83957	-65.85250	9.124	248.1
2026-03-29T10:20	-51.84915	-65.88980	9.011	247.5
2026-03-29T10:30	-51.85805	-65.92700	8.897	248.9
2026-03-29T10:40	-51.86643	-65.96393	8.772	249.8
2026-03-29T10:50	-51.87499	-66.00175	8.982	249.9
2026-03-29T11:00	-51.88346	-66.03994	9.045	250.3
2026-03-29T11:10	-51.89207	-66.07809	9.053	249.9
2026-03-29T11:20	-51.90052	-66.11594	8.968	250.1
2026-03-29T11:30	-51.90904	-66.15305	8.822	249.6
2026-03-29T11:40	-51.91765	-66.18982	8.761	249.2
2026-03-29T11:50	-51.92798	-66.22535	8.744	244.8
2026-03-29T12:00	-51.93839	-66.26065	8.713	244.5
2026-03-29T12:10	-51.94881	-66.29598	8.715	244.5
2026-03-29T12:20	-51.95927	-66.33242	8.943	245.1
2026-03-29T12:30	-51.97001	-66.36900	9.016	244.6
2026-03-29T12:40	-51.98071	-66.40505	8.899	244.3
2026-03-29T12:50	-51.99045	-66.44045	8.620	246.0
2026-03-29T13:00	-51.99984	-66.47647	8.698	247.1
2026-03-29T13:10	-52.00946	-66.51346	8.925	247.1
2026-03-29T13:20	-52.01932	-66.55074	9.016	246.8
2026-03-29T13:30	-52.02919	-66.58808	9.030	246.8
2026-03-29T13:40	-52.03842	-66.62370	8.585	247.2
2026-03-29T13:50	-52.04784	-66.65958	8.664	246.9
2026-03-29T14:00	-52.05719	-66.69527	8.612	247.0
2026-03-29T14:10	-52.06641	-66.73075	8.553	247.1
2026-03-29T14:20	-52.07585	-66.76659	8.653	246.8
2026-03-29T14:30	-52.08517	-66.80271	8.693	247.3
2026-03-29T14:40	-52.09472	-66.83981	8.923	247.3
2026-03-29T14:50	-52.10426	-66.87674	8.887	247.2
2026-03-29T15:00	-52.11341	-66.91245	8.582	247.4
2026-03-29T15:10	-52.12257	-66.94806	8.560	247.3
2026-03-29T15:20	-52.13157	-66.98320	8.438	247.4
2026-03-29T15:30	-52.14067	-67.01830	8.445	247.1
2026-03-29T15:40	-52.14986	-67.05403	8.585	247.3
2026-03-29T15:50	-52.15919	-67.09049	8.749	247.4
2026-03-29T16:00	-52.16855	-67.12715	8.797	247.4
2026-03-29T16:10	-52.17799	-67.16416	8.874	247.4
2026-03-29T16:20	-52.18747	-67.20148	8.942	247.5
2026-03-29T16:30	-52.19729	-67.23930	9.092	247.1
2026-03-29T16:40	-52.20730	-67.27787	9.269	247.1
2026-03-29T16:50	-52.21737	-67.31665	9.319	247.1
2026-03-29T17:00	-52.22746	-67.35562	9.357	247.1
2026-03-29T17:10	-52.23750	-67.39457	9.346	247.2
2026-03-29T17:20	-52.24730	-67.43296	9.194	247.4
2026-03-29T17:30	-52.25714	-67.47142	9.216	247.3
2026-03-29T17:40	-52.26700	-67.50950	9.136	247.1
2026-03-29T17:50	-52.27706	-67.54848	9.347	247.2
2026-03-29T18:00	-52.28699	-67.58724	9.284	247.3
2026-03-29T18:10	-52.29703	-67.62598	9.291	247.1
2026-03-29T18:20	-52.30715	-67.66548	9.455	247.3
2026-03-29T18:30	-52.31725	-67.70492	9.439	247.3
2026-03-29T18:40	-52.32707	-67.74402	9.331	247.7
2026-03-29T18:50	-52.33687	-67.78312	9.325	247.7
2026-03-29T19:00	-52.34655	-67.82278	9.421	248.2
2026-03-29T19:10	-52.35640	-67.86287	9.530	248.1
2026-03-29T19:20	-52.36528	-67.90071	8.939	249.0
2026-03-29T19:30	-52.37392	-67.93672	8.531	248.6
2026-03-29T19:40	-52.38219	-67.97104	8.133	248.5
2026-03-29T19:50	-52.39029	-68.00611	8.264	249.3
2026-03-29T20:00	-52.39846	-68.04091	8.216	249.0
2026-03-29T20:10	-52.40717	-68.07503	8.148	247.3
2026-03-29T20:20	-52.41681	-68.10853	8.157	244.8
2026-03-29T20:30	-52.42614	-68.14208	8.118	245.6
2026-03-29T20:40	-52.43521	-68.17461	7.876	245.5
2026-03-29T20:50	-52.44428	-68.20735	7.915	245.6
2026-03-29T21:00	-52.45193	-68.24036	7.773	249.2
2026-03-29T21:10	-52.45902	-68.27238	7.495	250.1
2026-03-29T21:20	-52.46616	-68.30472	7.568	250.1
2026-03-29T21:30	-52.47283	-68.33495	7.074	250.1
2026-03-29T21:40	-52.48046	-68.36990	8.166	250.3
2026-03-29T21:50	-52.48809	-68.40563	8.328	250.7
2026-03-29T22:00	-52.49601	-68.44226	8.545	250.5
2026-03-29T22:10	-52.50337	-68.47988	8.688	252.2
2026-03-29T22:20	-52.50570	-68.51788	8.395	264.2
2026-03-29T22:30	-52.49581	-68.55349	8.603	294.5
2026-03-29T22:40	-52.48674	-68.58635	7.931	294.3
2026-03-29T22:50	-52.47772	-68.61943	7.972	294.1
2026-03-29T23:00	-52.46830	-68.65366	8.260	294.2
2026-03-29T23:10	-52.45908	-68.68727	8.110	294.2
2026-03-29T23:20	-52.45054	-68.71870	7.571	294.0
2026-03-29T23:30	-52.44197	-68.75046	7.643	293.8
2026-03-29T23:40	-52.43172	-68.78676	8.806	294.8
2026-03-29T23:50	-52.42140	-68.82408	9.022	294.3
2026-03-30T00:00	-52.41159	-68.85969	8.604	294.2
2026-03-30T00:10	-52.40172	-68.89562	8.680	294.2
2026-03-30T00:20	-52.39146	-68.93305	9.040	294.1
2026-03-30T00:30	-52.38089	-68.97130	9.251	294.3
2026-03-30T00:40	-52.37320	-69.01254	9.507	286.9
2026-03-30T00:50	-52.36600	-69.05162	9.000	286.7
2026-03-30T01:00	-52.35902	-69.09023	8.881	286.4
2026-03-30T01:10	-52.35420	-69.12956	8.847	281.3
2026-03-30T01:20	-52.35049	-69.16893	8.790	278.7
2026-03-30T01:30	-52.34931	-69.20962	8.988	272.7
2026-03-30T01:40	-52.34960	-69.25054	9.030	269.3
2026-03-30T01:50	-52.35181	-69.29143	9.057	264.9
2026-03-30T02:00	-52.36071	-69.32954	8.999	249.1
2026-03-30T02:10	-52.37758	-69.36274	9.513	230.3
2026-03-30T02:20	-52.39648	-69.39643	10.077	227.5
2026-03-30T02:30	-52.41621	-69.42804	9.953	224.4
2026-03-30T02:40	-52.42973	-69.46077	8.703	235.9
2026-03-30T02:50	-52.44010	-69.48531	6.568	235.3
2026-03-30T03:00	-52.45463	-69.51259	7.969	228.9
2026-03-30T03:10	-52.47307	-69.54310	9.447	225.3
2026-03-30T03:20	-52.49249	-69.57032	9.209	220.5
2026-03-30T03:30	-52.51269	-69.59790	9.474	219.8
2026-03-30T03:40	-52.53316	-69.62239	9.131	216.1
2026-03-30T03:50	-52.55397	-69.64739	9.292	216.2
2026-03-30T04:00	-52.57091	-69.67760	9.016	227.4
2026-03-30T04:10	-52.58342	-69.71486	9.338	241.1
2026-03-30T04:20	-52.59627	-69.75132	9.245	239.9
2026-03-30T04:30	-52.60808	-69.78901	9.298	242.8
2026-03-30T04:40	-52.62012	-69.82857	9.701	243.4
2026-03-30T04:50	-52.63344	-69.87205	10.672	243.3
2026-03-30T05:00	-52.64678	-69.91564	10.697	243.3
2026-03-30T05:10	-52.65744	-69.96019	10.492	248.5
2026-03-30T05:20	-52.66806	-70.00427	10.386	248.4
2026-03-30T05:30	-52.67594	-70.04868	10.133	253.7
2026-03-30T05:40	-52.68384	-70.09240	9.989	253.4
2026-03-30T05:50	-52.69003	-70.13504	9.599	256.5
2026-03-30T06:00	-52.69645	-70.17689	9.449	255.8
2026-03-30T06:10	-52.70205	-70.21727	9.068	257.1
2026-03-30T06:20	-52.70843	-70.25480	8.529	254.4
2026-03-30T06:30	-52.71493	-70.29071	8.200	253.4
2026-03-30T06:40	-52.72022	-70.32187	7.079	254.3
2026-03-30T06:50	-52.72375	-70.35101	6.502	258.7
2026-03-30T07:00	-52.72699	-70.38194	6.866	260.2
2026-03-30T07:10	-52.73151	-70.41214	6.803	256.1
2026-03-30T07:20	-52.74140	-70.43734	6.565	237.1
2026-03-30T07:30	-52.75538	-70.45835	6.817	222.4
2026-03-30T07:40	-52.77315	-70.47396	7.254	208.1
2026-03-30T07:50	-52.79344	-70.47897	7.393	188.5
2026-03-30T08:00	-52.81557	-70.48235	8.008	185.3
2026-03-30T08:10	-52.84172	-70.48407	9.432	182.3
2026-03-30T08:20	-52.86910	-70.48803	9.903	185.0
2026-03-30T08:30	-52.89451	-70.48935	9.160	181.8
2026-03-30T08:40	-52.91986	-70.48809	9.139	178.3
2026-03-30T08:50	-52.94729	-70.49353	9.954	186.8
2026-03-30T09:00	-52.97617	-70.51102	11.081	200.1
2026-03-30T09:10	-52.99965	-70.54117	10.703	217.8
2026-03-30T09:20	-53.02173	-70.57856	11.372	225.6
2026-03-30T09:30	-53.04261	-70.61433	10.817	225.9
2026-03-30T09:40	-53.06103	-70.64739	9.778	227.2
2026-03-30T09:50	-53.07931	-70.68070	9.779	227.7
2026-03-30T10:00	-53.09759	-70.71505	9.946	228.5
2026-03-30T10:10	-53.11531	-70.74887	9.725	228.9
2026-03-30T10:20	-53.13341	-70.78019	9.413	226.1
2026-03-30T10:30	-53.14741	-70.80372	7.172	225.3
2026-03-30T10:40	-53.15715	-70.81990	4.961	224.9
2026-03-30T10:50	-53.16611	-70.83461	4.536	224.6
2026-03-30T11:00	-53.17523	-70.84959	4.616	224.6
2026-03-30T11:10	-53.18175	-70.86736	4.508	238.6
2026-03-30T11:20	-53.17960	-70.89416	5.853	277.6
2026-03-30T11:30	-53.17451	-70.90371	2.763	311.6
2026-03-30T11:40	-53.16989	-70.90699	1.810	336.9
2026-03-30T11:50	-53.16927	-70.90729	0.233	343.7
2026-03-30T12:00	-53.16927	-70.90729	0.000	211.0
2026-03-30T12:10	-53.16927	-70.90729	0.001	119.0
2026-03-30T12:20	-53.16927	-70.90729	0.001	288.4
2026-03-30T12:30	-53.16927	-70.90729	0.001	180.0
2026-03-30T12:40	-53.16928	-70.90729	0.001	163.3
2026-03-30T12:50	-53.16928	-70.90729	0.000	149.0
2026-03-30T12:52	-53.16928	-70.90729	0.002	0.0
